Level: Generation 1 Hard 3
Medal times: 8.427 author, 9.600 gold, 10.500 silver (finish the level to receive the bronze medal).
4 laps. Author lap times: 1.350, 2.350, 2.333, 2.394

Global leaderboard:
country
|| online
|| |  time   date       time     player #rank    lap times
DK Y  8.943s 2022-12-19 15:45 CoolgamerdudeXD #9001  1.466,2.467,2.450,2.560
CA N  8.943s 2023-02-01 00:25 SebYo #9002  1.550,2.400,2.650,2.343
US Y  8.943s 2023-05-09 18:45 FragrantKraken2 #9003  1.433,2.467,2.533,2.510
RU N  8.943s 2024-03-15 13:13 KORMAN #9004  1.683,2.433,2.434,2.393
US N  8.943s 2024-08-12 11:01 no #9005  1.533,2.417,2.500,2.493
US N  8.943s 2024-08-16 17:42 MBB #9006  1.550,2.400,2.483,2.510
SG Y  8.944s 2022-12-12 08:24 Jetski #9007  1.683,2.483,2.317,2.461
CZ Y  8.944s 2022-12-13 16:13 T0M1K #9008  1.600,2.416,2.434,2.494
GB Y  8.944s 2024-07-24 10:05 BourgeoisBallot #9009  1.750,2.400,2.366,2.428
RU N  8.944s 2024-09-13 07:58 kota :3 #9010  1.633,2.467,2.383,2.461
LB Y  8.944s 2026-03-06 16:24 malik #9011  1.466,2.500,2.500,2.478
US Y  8.958s 2024-06-01 18:54 Guest2830 #9012  1.466,2.417,2.567,2.508
AE N  8.960s 2022-12-07 15:09 Poggers Spyer #9013  1.450,2.833,2.333,2.344
IT N  8.960s 2022-12-08 10:51 noom #9014  1.433,2.517,2.583,2.427
CH Y  8.960s 2022-12-08 15:34 Tito #9015  1.350,2.333,2.417,2.860
RO N  8.960s 2022-12-16 20:14 InsaneHoplite23 #9016  1.383,2.750,2.367,2.460
GG N  8.960s 2022-12-22 20:43 ini #9017  1.400,2.433,2.650,2.477
US Y  8.960s 2023-02-12 02:46 Brendu #9018  1.466,2.500,2.434,2.560
NL N  8.960s 2023-03-15 11:43 Chaos #9019  1.833,2.333,2.334,2.460
DK N  8.960s 2023-04-19 19:08 ImagineLosing #9020  1.450,2.566,2.450,2.494
DK Y  8.960s 2023-09-16 13:28 Bobbi #9021  1.533,2.450,2.500,2.477
GB Y  8.960s 2023-12-17 17:48 TenurBengart #9022  1.766,2.400,2.300,2.494
DK Y  8.960s 2024-01-08 18:45 Bobbe #9023  1.550,2.366,2.617,2.427
FR N  8.960s 2024-03-06 17:45 1pertinent #9024  1.500,2.566,2.467,2.427
GR N  8.960s 2024-08-12 18:36 supersigma69 #9025  1.900,2.366,2.284,2.410
US Y  8.960s 2026-02-07 01:04 Guest3058 #9026  1.600,2.416,2.534,2.410
US N  8.960s 2026-03-02 18:44 Spooky #9027  1.583,2.417,2.483,2.477
BE N  8.960s 2026-03-07 14:18 Zack2.0 #9028  1.566,2.534,2.383,2.477
US N  8.961s 2024-11-22 06:06 ItsZay #9029  1.383,2.350,2.717,2.511
US N  8.961s 2025-07-24 15:51 Leap #9030  1.566,2.434,2.366,2.595
NL Y  8.961s 2026-04-30 23:18 Roos #9031  1.683,2.450,2.367,2.461
IL N  8.973s 2022-09-07 11:56 WantonProphet14 #9032  1.516,2.434,2.666,2.357
LT N  8.974s 2025-05-15 08:53 5imAsLTU #9033  1.550,2.383,2.383,2.658
US Y  8.976s 2023-10-19 03:18 HIGHZEE98onFN #9034  1.483,2.683,2.417,2.393
SG N  8.977s 2022-10-11 06:53 Warrior5340 #9035  1.616,2.467,2.350,2.544
NZ Y  8.977s 2022-12-07 06:51 Mick muncher #9036  1.383,2.367,2.366,2.861
CZ N  8.977s 2022-12-15 21:07 Honkoslav #9037  1.550,2.400,2.483,2.544
RS N  8.977s 2022-12-19 20:22 Guest8735 #9038  1.500,2.616,2.450,2.411
ES N  8.977s 2022-12-25 05:39 Kale #9039  1.433,2.467,2.483,2.594
US Y  8.977s 2023-01-04 03:09 eleven #9040  1.500,2.833,2.283,2.361
NL Y  8.977s 2023-02-02 20:04 quinn #9041  1.533,2.783,2.284,2.377
FR N  8.977s 2023-04-24 17:56 CleanTrooper619 #9042  1.866,2.434,2.300,2.377
GB Y  8.977s 2023-05-21 11:38 DaOne #9043  1.416,2.484,2.466,2.611
NL N  8.977s 2023-10-09 09:03 stefolliee #9044  1.433,2.733,2.400,2.411
HU N  8.977s 2023-12-31 11:21 EZ #9045  1.716,2.367,2.417,2.477
SE N  8.977s 2024-06-02 14:19 Ibe_lol #9046  1.850,2.283,2.383,2.461
DE N  8.977s 2025-02-08 16:49 Icyy #9047  1.483,2.517,2.500,2.477
RO N  8.977s 2025-02-18 15:05 q_p.paul #9048  1.566,2.400,2.684,2.327
US N  8.977s 2025-12-27 23:56 Snail #9049  1.566,2.550,2.434,2.427
IT Y  8.977s 2026-02-05 17:19 SP_mamma_africa #9050  1.700,2.416,2.417,2.444
BG Y  8.977s 2026-03-30 22:48 Fire_android #9051  1.516,2.517,2.450,2.494
ES Y  8.977s 2026-04-08 19:46 Marketes06 #9052  1.566,2.467,2.450,2.494
PL Y  8.977s 2026-05-04 21:49 MintBoy🚱 #9053  1.650,2.466,2.367,2.494
EG N  8.978s 2022-12-15 02:12 asserpou #9054  1.766,2.400,2.467,2.345
LU N  8.978s 2024-02-27 13:27 DarioFortnite #9055  1.433,2.450,2.500,2.595
PL N  8.991s 2025-12-25 21:49 Neftys #9056  1.533,2.583,2.450,2.425
FI Y  8.993s 2022-12-07 09:29 toospeedy #9057  1.550,2.433,2.500,2.510
GB Y  8.993s 2023-02-01 06:26 Pineapple #9058  1.483,2.567,2.466,2.477
CA N  8.993s 2023-10-07 18:03 FlyingWizard22 #9059  1.533,2.517,2.516,2.427
AU Y  8.993s 2024-02-25 03:38 StealthDragonJ #9060  1.700,2.450,2.416,2.427
AU Y  8.993s 2024-07-07 21:52 Al-Assad Voter #9061  1.450,2.550,2.500,2.493
IL N  8.993s 2025-12-30 18:34 Ziv #9062  1.516,2.467,2.533,2.477
FR N  8.993s 2026-02-23 18:36 YTASNLBS1967 #9063  1.516,2.517,2.517,2.443
CL Y  8.993s 2026-04-16 22:36 Moha #9064  1.633,2.583,2.367,2.410
AT N  8.994s 2022-12-09 20:14 Sticksi #9065  1.516,2.367,2.417,2.694
BR Y  8.994s 2022-12-19 21:47 baudelaire #9066  1.733,2.450,2.450,2.361
SG N  8.994s 2023-03-30 03:13 Jumppppppp #9067  1.616,2.684,2.383,2.311
GB Y  8.994s 2023-05-12 23:01 Michelle #9068  1.600,2.383,2.683,2.328
TR N  8.994s 2023-08-09 11:54 batbat #9069  1.616,2.584,2.316,2.478
US Y  8.994s 2024-08-05 16:40 inoob8C #9070  1.566,2.384,2.483,2.561
CA N  8.994s 2024-10-18 15:49 セクシーなカメレオン #9071  1.516,2.417,2.517,2.544
GE Y  8.994s 2026-03-11 19:10 geginio2011 #9072  1.483,2.450,2.467,2.594
JP Y  8.994s 2026-04-05 12:37 KJ #9073  1.800,2.400,2.383,2.411
US Y  8.994s 2026-04-18 12:41 WilderComplement88 #9074  1.666,2.484,2.383,2.461
US N  8.994s 2026-05-03 19:46 Logan #9075  1.583,2.483,2.450,2.478
LT Y  9.010s 2022-12-12 07:03 DomerisGG #9076  1.550,2.516,2.467,2.477
LT Y  9.010s 2022-12-12 07:38 upsidedownjagua #9077  1.500,2.333,2.367,2.810
LU N  9.010s 2023-03-21 18:22 jo x5 #9078  1.383,2.400,2.767,2.460
CA N  9.010s 2023-04-09 16:21 Blaster #9079  1.483,2.367,2.800,2.360
SE Y  9.010s 2023-05-25 16:30 CONYX #9080  1.450,2.750,2.400,2.410
FR Y  9.010s 2023-10-29 15:35 Phin_ #9081  1.500,2.400,2.733,2.377
CA N  9.010s 2023-12-04 23:55 Wesley297 #9082  1.400,2.800,2.366,2.444
FR N  9.010s 2024-04-29 12:35 katrevink #9083  1.533,2.500,2.617,2.360
US N  9.010s 2024-05-13 18:16 Dreww #9084  1.400,2.400,2.716,2.494
US N  9.010s 2025-04-20 01:44 AverageMDEnjoyer #9085  1.900,2.333,2.350,2.427
IN Y  9.010s 2025-11-18 20:33 Rish #9086  1.583,2.583,2.384,2.460
RU Y  9.010s 2026-03-05 13:13 globalwatch #9087  1.600,2.500,2.500,2.410
BR Y  9.010s 2026-04-08 03:17 Soyvieira_ #9088  1.550,2.750,2.366,2.344
FI Y  9.010s 2026-05-05 23:54 k1ra 15y.o #9089  1.450,2.550,2.500,2.510
TN N  9.011s 2022-12-24 11:29 Guest5674 #9090  1.400,2.450,2.433,2.728
AU N  9.011s 2023-04-11 05:51 TwistedLegend06 #9091  1.500,2.416,2.717,2.378
IL N  9.011s 2023-09-07 05:03 IrascibleNinja4 #9092  1.500,2.483,2.517,2.511
SK N  9.011s 2023-11-07 07:58 itzzSebwx #9093  1.733,2.367,2.516,2.395
LU N  9.011s 2024-01-30 12:49 Andrew Gillen #9094  1.683,2.467,2.483,2.378
US Y  9.024s 2026-04-22 03:57 Haskell #9095  1.616,2.434,2.516,2.458
PL N  9.025s 2022-09-07 13:35 ScaVenq #9096  1.766,2.300,2.500,2.459
PT N  9.025s 2022-12-11 19:54 Froster #9097  1.350,2.366,2.784,2.525
NZ Y  9.026s 2024-03-02 08:13 lovedimburger #9098  1.866,2.350,2.384,2.426
VA N  9.027s 2022-12-12 12:43 Bubbles999 #9099  1.466,2.450,2.434,2.677
SI Y  9.027s 2022-12-18 10:17 child  Slovenia #9100  1.716,2.434,2.383,2.494
FR Y  9.027s 2023-04-12 23:11 Baku #9101  1.600,2.466,2.484,2.477
RS N  9.027s 2023-06-14 10:52 GiantHitman2 #9102  1.700,2.400,2.300,2.627
DE N  9.027s 2023-10-08 17:21 fcbayernFS #9103  1.466,2.384,2.750,2.427
CH N  9.027s 2023-10-20 15:37 secretName #9104  1.683,2.450,2.450,2.444
HR Y  9.027s 2024-02-29 08:06 seven #9105  1.716,2.400,2.467,2.444
RU N  9.027s 2024-05-09 11:31 Guest2320 #9106  1.483,2.367,2.566,2.611
PL N  9.027s 2026-03-01 17:18 Pepper #9107  1.533,2.500,2.483,2.511
BE N  9.027s 2026-03-17 10:33 XmaliX_X #9108  1.700,2.466,2.367,2.494
IT Y  9.027s 2026-05-03 08:07 Taiyoryu #9109  1.616,2.484,2.450,2.477
US Y  9.028s 2023-07-13 04:22 Klaidi Tabuku #9110  1.716,2.434,2.450,2.428
DZ N  9.040s 2026-02-17 20:39 Guest3604 #9111  1.700,2.466,2.450,2.424
GB N  9.043s 2023-02-04 12:59 rorytheracingca #9112  1.683,2.367,2.516,2.477
CA Y  9.043s 2023-02-10 02:20 Guest8239 #9113  1.800,2.400,2.433,2.410
NZ N  9.043s 2023-05-14 21:49 InattentiveLott #9114  1.533,2.317,2.716,2.477
NL N  9.043s 2023-09-24 13:55 P1 #9115  1.666,2.650,2.384,2.343
US Y  9.043s 2023-11-23 21:39 63_thewah #9116  1.650,2.466,2.500,2.427
CH Y  9.043s 2023-12-10 10:52 Guest4744 #9117  1.633,2.650,2.417,2.343
AT N  9.043s 2024-05-29 15:37 Chados #9118  1.566,2.700,2.367,2.410
US Y  9.043s 2026-03-04 00:17 Aaron #9119  1.600,2.550,2.416,2.477
DK N  9.043s 2026-04-06 14:39 dvdspeedy #9120  1.600,2.383,2.417,2.643
RS Y  9.044s 2022-12-16 07:18 SuperVuk #9121  1.616,2.517,2.483,2.428
AT Y  9.044s 2022-12-21 07:26 I_LikeCuming #9122  1.433,2.400,2.800,2.411
LT Y  9.044s 2022-12-25 13:05 kaka mula #9123  1.633,2.517,2.433,2.461
DE N  9.044s 2023-02-05 18:56 Tonko #9124  1.750,2.466,2.384,2.444
FR N  9.044s 2023-02-11 13:57 moon_star #9125  1.533,2.717,2.383,2.411
JP N  9.044s 2023-02-22 05:56 Cocoagraft #9126  1.633,2.517,2.416,2.478
NL N  9.044s 2023-09-20 14:38 Bansai #9127  1.583,2.400,2.567,2.494
US Y  9.044s 2024-01-27 01:53 Baconballs74 #9128  1.550,2.483,2.483,2.528
LU Y  9.044s 2024-02-02 08:45 deleted user #9129  1.466,2.784,2.400,2.394
AU N  9.044s 2024-03-16 21:31 JOjo #9130  1.816,2.350,2.467,2.411
AU N  9.044s 2024-06-11 09:56 Henky #9131  1.566,2.500,2.517,2.461
US N  9.044s 2024-06-24 02:40 Octorock #9132  1.500,2.400,2.950,2.194
JP N  9.044s 2025-12-26 07:40 Kronos #9133  1.566,2.400,2.534,2.544
DE Y  9.044s 2026-03-20 23:41 Zwazzle #9134  1.733,2.417,2.416,2.478
IT N  9.057s 2022-12-28 11:03 Apaol13 #9135  1.750,2.433,2.483,2.391
IT N  9.060s 2022-12-07 11:23 acice69 #9136  1.450,2.450,2.566,2.594
HR Y  9.060s 2022-12-11 15:45 Box5001 #9137  1.650,2.533,2.417,2.460
BR Y  9.060s 2022-12-27 14:50 Jabur #9138  1.650,2.433,2.483,2.494
IL Y  9.060s 2023-05-23 21:33 ballidaniel #9139  1.716,2.600,2.334,2.410
EE Y  9.060s 2023-06-15 06:20 Imdabiggestbird #9140  1.666,2.700,2.284,2.410
TT Y  9.060s 2023-06-25 11:42 EagerCapability #9141  1.666,2.417,2.500,2.477
IL Y  9.060s 2023-08-14 12:17 Kipnugget #9142  1.900,2.366,2.334,2.460
SE N  9.060s 2023-09-14 16:24 SilencedMCPlaye #9143  1.616,2.567,2.400,2.477
SE Y  9.060s 2023-10-16 17:43 Diddelo15 #9144  1.400,2.883,2.383,2.394
DE Y  9.060s 2023-10-27 21:12 Guest8517 #9145  1.750,2.483,2.433,2.394
RO Y  9.060s 2024-01-19 08:29 Guest3738 #9146  1.683,2.433,2.417,2.527
AE N  9.060s 2024-01-25 16:04 Idk #9147  1.566,2.817,2.300,2.377
US N  9.060s 2024-05-17 14:31 Guest3905 #9148  1.400,2.483,2.500,2.677
DK N  9.060s 2024-09-14 07:42 Gazcarrier1 #9149  1.450,2.416,2.967,2.227
SE N  9.060s 2024-11-26 09:21 Sigma rizzler #9150  1.483,2.433,2.584,2.560
CA N  9.060s 2025-03-02 17:05 Tony #9151  1.733,2.433,2.467,2.427
GB Y  9.060s 2026-04-22 11:07 connor #9152  1.666,2.450,2.434,2.510
BE N  9.060s 2026-05-02 11:32 GeographicJoker #9153  1.550,2.466,2.450,2.594
FR Y  9.060s 2026-05-06 11:44 chaavi #9154  1.483,2.483,2.500,2.594
BG N  9.061s 2023-02-02 21:35 Fifa_bg432 #9155  1.766,2.467,2.367,2.461
FR Y  9.061s 2023-04-06 09:25 La zen #9156  1.516,2.884,2.366,2.295
ES N  9.061s 2024-01-18 22:11 pro4brayan #9157  1.550,2.400,2.683,2.428
IE Y  9.074s 2023-08-31 15:18 Appleisobject #9158  1.833,2.350,2.483,2.408
GB N  9.076s 2023-02-11 23:25 fbk #9159  1.466,2.534,2.600,2.476
US Y  9.076s 2024-08-13 01:46 Guest9598 #9160  1.550,2.250,3.083,2.193
CZ N  9.077s 2022-12-08 08:56 Thurius_ #9161  1.416,2.467,2.733,2.461
RO N  9.077s 2022-12-16 19:04 Guest8595 #9162  1.466,2.600,2.434,2.577
CH N  9.077s 2022-12-27 19:38 oitchoucanadou #9163  1.516,2.467,2.617,2.477
FR Y  9.077s 2023-02-10 07:16 Mystic #9164  1.350,2.516,2.567,2.644
FR N  9.077s 2023-03-29 10:17 pasteque-man #9165  1.633,2.433,2.517,2.494
NO Y  9.077s 2023-08-06 11:53 Fiffmain #9166  1.500,2.483,2.600,2.494
DE N  9.077s 2023-12-21 09:05 GamerZombie09 #9167  1.550,2.450,2.716,2.361
SE N  9.077s 2024-02-04 21:42 NotDragoneyez99 #9168  1.533,2.467,2.566,2.511
GB N  9.077s 2024-03-24 14:34 SomethingStupid #9169  1.466,2.400,2.800,2.411
US Y  9.077s 2024-05-17 00:48 Guest1507 #9170  1.500,2.833,2.383,2.361
IL Y  9.077s 2024-06-05 12:13 skibidi #9171  1.566,2.300,2.350,2.861
CA N  9.077s 2024-12-09 04:52 Gogo #9172  1.466,2.484,2.583,2.544
NL N  9.077s 2025-01-24 13:41 Fedde #9173  1.500,2.516,2.500,2.561
GB N  9.077s 2025-03-04 07:55 Guest2867 #9174  1.666,2.467,2.417,2.527
US Y  9.077s 2025-04-06 19:39 Chloé #9175  1.450,2.550,2.566,2.511
NL Y  9.077s 2026-02-04 16:40 Manopro #9176  1.450,2.416,2.567,2.644
ZA N  9.077s 2026-05-06 09:05 Sean #9177  1.716,2.434,2.416,2.511
EG N  9.077s 2026-05-06 21:24 HydraulicModesty62 #9178  1.500,2.566,2.434,2.577
MA N  9.078s 2022-12-17 16:04 drissez1 #9179  1.666,2.467,2.500,2.445
US N  9.078s 2023-04-09 23:25 BBeachBall #9180  1.733,2.450,2.467,2.428
RO Y  9.078s 2023-12-17 12:03 rares #9181  1.583,2.533,2.484,2.478
GB N  9.078s 2026-02-21 16:18 🤠 #9182  1.633,2.500,2.483,2.462
LB Y  9.091s 2022-12-15 13:47 Abolwiss #9183  1.716,2.400,2.484,2.491
EE Y  9.093s 2022-12-08 18:46 Blaze #9184  1.533,2.317,2.333,2.910
TH N  9.093s 2022-12-18 17:48 betsek #9185  1.466,2.434,2.300,2.893
SE N  9.093s 2023-05-06 12:27 Hugo 5 #9186  1.533,2.817,2.333,2.410
SE Y  9.093s 2024-01-19 15:09 Halola #9187  1.500,2.616,2.467,2.510
JM N  9.093s 2024-09-15 04:16 Dax Zeo #9188  1.433,2.350,2.367,2.943
IT Y  9.093s 2026-04-13 18:22 Guest6292 #9189  1.650,2.533,2.433,2.477
ES N  9.094s 2022-09-07 12:34 Guest5148 #9190  1.433,2.950,2.433,2.278
LT Y  9.094s 2022-12-07 15:33 Guest8094 #9191  1.716,2.367,2.400,2.611
FI N  9.094s 2022-12-19 19:05 Fir4li0nx #9192  1.566,2.400,2.817,2.311
GB Y  9.094s 2023-12-13 16:19 Guest7020 #9193  2.000,2.350,2.316,2.428
AU Y  9.094s 2024-02-18 00:25 lane117382 #9194  1.650,2.450,2.566,2.428
US Y  9.094s 2024-04-17 19:50 Steppin god #9195  1.700,2.516,2.417,2.461
DK Y  9.094s 2024-07-28 11:29 Lemon Man #9196  1.516,2.367,2.667,2.544
TR Y  9.094s 2024-08-13 18:11 ozgurtmk #9197  1.633,2.467,2.516,2.478
CA Y  9.094s 2024-09-30 14:46 FujiApplePiez #9198  1.616,2.517,2.500,2.461
MY N  9.094s 2025-01-21 07:34 The Unknown User #9199  1.733,2.417,2.450,2.494
CH Y  9.094s 2026-02-25 08:52 LexyData #9200  1.683,2.450,2.483,2.478
GR Y  9.107s 2022-12-17 14:12 xristos #9201  1.533,2.817,2.400,2.357
FI Y  9.110s 2022-09-07 09:18 tombiss #9202  1.533,2.517,2.516,2.544
FR N  9.110s 2022-09-07 09:19 Honkashi #9203  1.833,2.433,2.434,2.410
AU N  9.110s 2023-01-04 03:48 2Raree #9204  1.833,2.450,2.433,2.394
BA Y  9.110s 2023-10-22 16:51 Nidzo #9205  1.733,2.450,2.483,2.444
SE N  9.110s 2023-10-22 17:03 Turtle #9206  1.500,2.516,2.500,2.594
FR N  9.110s 2023-11-19 21:33 Guest4281 #9207  1.483,2.383,2.384,2.860
PL N  9.110s 2024-01-19 13:36 FIXIU #9208  1.450,2.550,2.533,2.577
LU N  9.110s 2024-02-04 11:56 Simple #9209  1.516,2.417,2.550,2.627
US Y  9.110s 2024-02-20 14:28 Fr05T #9210  1.416,2.467,2.667,2.560
US N  9.110s 2024-06-14 13:43 Rohnny #9211  1.433,2.500,2.783,2.394
RU N  9.110s 2024-07-10 05:16 everyonecan123 #9212  1.666,2.484,2.433,2.527
NO Y  9.110s 2025-12-25 15:45 🤴🏼 #9213  1.616,2.434,2.666,2.394
IQ N  9.110s 2026-02-11 17:42 oncenot #9214  1.383,2.417,2.500,2.810
GB N  9.110s 2026-04-06 00:58 BlackStar #9215  1.683,2.383,2.434,2.610
SG Y  9.110s 2026-05-05 12:59 Cheetoz #9216  1.566,2.550,2.417,2.577
US Y  9.111s 2023-06-03 17:55 Potato human #9217  1.550,2.933,2.267,2.361
US Y  9.111s 2026-03-19 08:25 Guest3675 #9218  1.750,2.450,2.450,2.461
TR Y  9.126s 2022-12-16 20:40 neymarket #9219  1.566,2.334,2.600,2.626
IT N  9.127s 2022-12-12 18:33 monk #9220  1.516,2.367,2.867,2.377
ES Y  9.127s 2022-12-12 20:34 WAWA #9221  1.483,2.450,2.633,2.561
US N  9.127s 2023-04-05 17:43 KyleF007 #9222  1.466,2.417,2.617,2.627
US N  9.127s 2023-04-09 00:20 Plattycus #9223  1.433,2.483,2.600,2.611
GB N  9.127s 2023-11-04 11:49 MercurialKraken #9224  1.683,2.483,2.484,2.477
PL Y  9.127s 2024-06-10 16:18 Michalox92 #9225  1.816,2.450,2.400,2.461
US N  9.127s 2025-10-08 00:55 skibs #9226  1.483,2.417,2.483,2.744
GB N  9.127s 2026-02-08 08:25 Jeffrey epstein #9227  1.416,2.450,2.567,2.694
CH Y  9.127s 2026-03-15 15:18 420420 #9228  1.616,2.684,2.500,2.327
RO N  9.128s 2023-05-18 18:30 Raduw1235 #9229  1.500,2.783,2.383,2.462
FI N  9.141s 2023-05-14 08:59 Awardtetris #9230  1.716,2.384,2.566,2.475
JP Y  9.141s 2024-02-18 10:34 MiniatureBeetle #9231  1.650,2.533,2.483,2.475
CZ Y  9.143s 2022-12-08 11:23 Kohy02 #9232  1.616,2.400,2.684,2.443
GB N  9.143s 2023-04-02 13:34 Imagine being #9233  1.616,2.517,2.433,2.577
GB Y  9.143s 2023-05-06 09:59 ThankfulRendezv #9234  1.683,2.350,2.350,2.760
BE N  9.143s 2023-07-03 12:15 VcM_nathan #9235  1.483,2.733,2.567,2.360
NO Y  9.143s 2023-11-13 12:24 GigaCole #9236  1.783,2.417,2.466,2.477
GB N  9.143s 2025-03-04 13:57 Indyfs8 #9237  1.616,2.467,2.500,2.560
IN Y  9.143s 2026-03-29 08:13 Guest8762 #9238  1.350,2.583,2.567,2.643
US N  9.144s 2022-10-11 04:58 BINSNAGGIN #9239  1.583,2.500,2.467,2.594
CH N  9.144s 2023-06-06 05:17 Nachtarafann #9240  1.533,2.483,2.850,2.278
US Y  9.144s 2024-04-10 19:17 Bru #9241  1.700,2.400,2.566,2.478
PL N  9.144s 2025-01-30 09:16 DEVILL #9242  1.600,2.500,2.566,2.478
US N  9.144s 2025-06-12 20:18 Steven #9243  1.666,2.584,2.416,2.478
RO N  9.160s 2022-12-22 23:35 Frostie #9244  1.500,2.983,2.300,2.377
PT N  9.160s 2022-12-24 23:34 Bobotics19 #9245  1.816,2.500,2.434,2.410
NZ N  9.160s 2022-12-25 21:48 swordfight1769 #9246  1.566,2.717,2.400,2.477
US N  9.160s 2023-06-05 06:05 lol #9247  1.916,2.467,2.417,2.360
US N  9.160s 2024-04-12 23:41 Jragon #9248  1.600,2.483,2.467,2.610
RU Y  9.160s 2024-06-01 08:32 ggvp511 #9249  1.483,2.533,2.617,2.527
KR N  9.160s 2026-02-28 00:55 Kubiks Lube #9250  1.550,2.500,2.466,2.644
IT Y  9.160s 2026-04-14 12:40 Dek #9251  1.500,2.416,2.800,2.444
FR N  9.161s 2024-07-06 08:48 Rayzen #9252  1.616,2.634,2.466,2.445
TR Y  9.161s 2024-08-11 16:10 Apu #9253  1.733,2.400,2.817,2.211
LT Y  9.161s 2026-01-22 06:09 Arkee #9254  1.833,2.483,2.484,2.361
DE N  9.174s 2024-12-04 14:59 Gam3rsky #9255  1.416,2.517,2.517,2.724
LT N  9.177s 2022-12-09 21:33 arrmiszz #9256  1.500,2.566,2.434,2.677
SI Y  9.177s 2022-12-14 09:48 zigapulko #9257  1.466,2.950,2.300,2.461
ES Y  9.177s 2022-12-18 09:29 Vildruf #9258  1.483,2.550,2.583,2.561
FI Y  9.177s 2023-02-10 07:28 wheelreel #9259  1.500,2.750,2.433,2.494
LT N  9.177s 2023-02-23 13:54 eironiuska #9260  1.550,2.716,2.434,2.477
GB Y  9.177s 2023-07-26 10:00 Bruhperson6970 #9261  1.783,2.483,2.434,2.477
SK N  9.177s 2024-01-02 17:23 Guest8953 #9262  1.616,2.617,2.600,2.344
DE Y  9.177s 2024-01-12 06:37 TylertropicalDC #9263  1.600,2.516,2.550,2.511
US N  9.177s 2024-04-18 05:44 Guest4629 #9264  1.716,2.767,2.367,2.327
NO N  9.177s 2024-08-02 15:16 GAMINGsondre #9265  1.533,2.367,2.866,2.411
IE N  9.177s 2024-08-11 14:18 exoflare #9266  1.816,2.467,2.467,2.427
US Y  9.177s 2026-01-28 01:58 danger #9267  1.666,2.367,2.783,2.361
GB Y  9.177s 2026-02-07 11:53 Dylbo baggins #9268  1.950,2.433,2.367,2.427
US Y  9.177s 2026-02-11 06:02 oppajppark #9269  1.616,2.517,2.467,2.577
NL Y  9.177s 2026-02-17 09:43 ゆみ_TigreNoir #9270  1.850,2.433,2.433,2.461
US N  9.178s 2024-08-03 16:35 Wave is back! #9271  1.400,2.566,2.800,2.412
JP N  9.190s 2024-07-01 16:23 ka_araragi #9272  1.633,2.783,2.434,2.340
PL N  9.191s 2024-06-21 19:00 mkkset #9273  1.583,2.700,2.500,2.408
SK Y  9.193s 2022-12-09 13:10 catinho13 #9274  1.466,2.467,2.600,2.660
US N  9.193s 2023-05-07 01:57 Bobelless #9275  1.516,2.550,2.567,2.560
BR Y  9.193s 2026-02-12 06:27 Rosenberg77 #9276  1.783,2.417,2.466,2.527
GR Y  9.194s 2022-12-17 01:18 deleted user #9277  1.616,2.417,2.533,2.628
RO Y  9.194s 2022-12-20 18:02 TYE SAORAMI #9278  1.466,2.467,2.767,2.494
RO N  9.194s 2023-02-03 22:02 Guest4885 #9279  1.616,2.784,2.350,2.444
NO N  9.194s 2024-10-10 22:55 tipptopp #9280  1.500,2.883,2.350,2.461
RS Y  9.210s 2022-12-19 20:11 Guest5260 #9281  1.583,2.450,2.583,2.594
XK Y  9.210s 2022-12-23 13:12 Mateja #9282  1.450,2.366,3.084,2.310
DE Y  9.210s 2023-07-03 17:47 Bananensaft #9283  1.700,2.366,2.367,2.777
EE Y  9.210s 2023-08-16 18:21 MaL6hunSu4ra #9284  1.483,2.483,2.617,2.627
SE Y  9.210s 2023-09-04 17:07 Guest1919 #9285  1.516,2.450,2.717,2.527
US N  9.210s 2023-09-17 16:06 Tise_242 #9286  2.016,2.350,2.434,2.410
PL Y  9.210s 2024-03-02 23:15 kazachicken #9287  1.450,2.550,2.400,2.810
US N  9.210s 2024-04-29 01:01 Sin Ultimate #9288  1.816,2.417,2.433,2.544
PL Y  9.210s 2024-06-20 12:24 rudyniga #9289  1.666,2.550,2.450,2.544
BY N  9.210s 2024-08-31 19:14 L1nkin #9290  1.766,2.717,2.383,2.344
US Y  9.210s 2025-01-24 01:53 Chaos #9291  1.533,2.250,2.450,2.977
AU N  9.211s 2024-01-21 12:09 Clues #9292  1.700,2.350,2.733,2.428
IL N  9.211s 2024-02-22 14:54 Ella #9293  1.716,2.650,2.384,2.461
CH Y  9.211s 2024-05-05 15:48 Kenshitora #9294  1.783,2.417,2.500,2.511
BR N  9.223s 2023-06-29 19:53 Guest5357 #9295  1.916,2.417,2.383,2.507
GB Y  9.223s 2024-04-09 18:24 Guest3151 #9296  1.483,2.683,2.584,2.473
BG Y  9.224s 2022-12-07 09:40 jzdrain #9297  1.633,2.450,2.750,2.391
FR Y  9.224s 2023-05-11 05:46 Asta #9298  1.416,2.484,3.100,2.224
US Y  9.225s 2025-03-28 04:20 7melee #9299  1.716,2.400,2.567,2.542
FI N  9.226s 2024-10-07 04:44 Nuru #9300  1.700,2.533,2.450,2.543
US N  9.227s 2022-09-07 04:07 Silvershell #9301  1.816,2.600,2.367,2.444
US N  9.227s 2022-10-11 02:29 Samgenk #9302  1.800,2.433,2.450,2.544
IL N  9.227s 2022-12-08 19:15 Kofman #9303  1.450,2.700,2.533,2.544
CZ Y  9.227s 2022-12-09 07:19 AppallingTailor #9304  1.616,2.367,2.267,2.977
ES N  9.227s 2022-12-22 19:49 arodos2 #9305  1.550,2.400,2.500,2.777
US Y  9.227s 2023-07-21 02:59 BlueShorts #9306  1.566,2.367,2.917,2.377
PL Y  9.227s 2023-12-13 14:16 QuertoneR #9307  1.766,2.484,2.483,2.494
ES Y  9.228s 2022-12-23 14:30 Guest8589 #9308  1.466,2.334,2.950,2.478
FR Y  9.228s 2026-03-20 11:40 sweetplane #9309  1.350,2.350,3.150,2.378
LV N  9.243s 2022-12-08 15:43 pro #9310  1.483,2.450,2.367,2.943
LV N  9.243s 2022-12-19 10:12 den #9311  1.450,2.433,2.433,2.927
GB Y  9.243s 2023-04-05 17:26 Guest2347 #9312  1.733,2.567,2.500,2.443
SE N  9.243s 2024-03-08 17:38 RPG XenoZ #9313  1.666,2.584,2.566,2.427
BR N  9.243s 2024-05-05 05:23 EUFRADES #9314  1.516,2.417,2.883,2.427
US N  9.243s 2026-02-11 03:40 valeriaa #9315  1.683,2.433,2.567,2.560
CZ N  9.244s 2022-12-14 08:26 JustTomas_ #9316  1.883,2.450,2.450,2.461
FI N  9.244s 2024-07-28 13:58 vilho #9317  1.600,2.483,2.550,2.611
BG Y  9.244s 2024-08-16 13:22 s̶a̶s̶h̶o̶愛 #9318  1.433,2.633,2.600,2.578
RS N  9.244s 2026-04-11 22:33 Guest3907 #9319  1.800,2.383,2.600,2.461
EE Y  9.244s 2026-04-21 09:39 Лорд Хиханьки #9320  1.600,2.566,2.484,2.594
RU Y  9.257s 2026-01-05 03:40 Komagiri #9321  1.600,2.383,3.050,2.224
BE Y  9.259s 2024-02-04 13:43 LuckySienna #9322  1.500,2.466,2.784,2.509
BE Y  9.259s 2024-08-05 12:08 Victory #9323  1.600,2.766,2.417,2.476
US N  9.260s 2022-09-07 00:15 CorruptedPie #9324  1.700,2.783,2.433,2.344
AT Y  9.260s 2022-12-09 07:52 moloklokffkofof #9325  1.583,2.917,2.383,2.377
HR N  9.260s 2022-12-19 21:31 BabaCro22 #9326  1.466,2.517,2.617,2.660
NL N  9.260s 2023-02-06 11:32 pingu #9327  1.616,2.567,2.383,2.694
GB N  9.260s 2023-06-06 05:47 etb #9328  1.533,2.700,2.500,2.527
ES N  9.260s 2024-04-12 11:31 Nowinsbro #9329  1.716,2.467,2.683,2.394
AU N  9.260s 2024-05-02 21:58 ZirahXD #9330  2.000,2.333,2.400,2.527
GB N  9.260s 2024-05-14 08:20 Guest5651 #9331  1.583,2.583,2.500,2.594
PL N  9.260s 2024-06-14 13:33 boros66 #9332  1.700,2.650,2.416,2.494
RU Y  9.260s 2024-07-13 11:25 Yanorix #9333  1.583,2.633,2.500,2.544
ZA N  9.260s 2024-09-13 20:15 シŘẹąpęŕシ #9334  1.650,2.466,2.500,2.644
PL N  9.260s 2024-12-28 23:44 Agoz #9335  1.833,2.633,2.417,2.377
BR Y  9.260s 2026-04-08 22:43 Zaytss01 #9336  1.483,2.750,2.633,2.394
GR N  9.261s 2023-02-13 14:37 StefPro7345 #9337  1.783,2.350,2.433,2.695
HU Y  9.273s 2022-12-21 08:18 Luca #9338  1.866,2.500,2.517,2.390
DE N  9.274s 2023-06-08 14:47 noname #9339  1.450,2.450,2.583,2.791
CA N  9.275s 2023-01-30 16:05 Coolpracer #9340  1.466,2.800,2.650,2.359
HR N  9.277s 2022-12-14 20:00 PresumptiveSpel #9341  1.466,2.300,2.417,3.094
SK Y  9.277s 2023-05-12 12:44 viki #9342  1.783,2.283,2.500,2.711
FR N  9.277s 2023-08-05 14:28 TomcaTv #9343  1.500,2.400,3.033,2.344
NL N  9.277s 2024-01-12 07:16 NotableRoof5 #9344  1.500,2.633,2.517,2.627
NL N  9.277s 2024-08-11 19:06 MBK #9345  1.450,2.433,2.617,2.777
DE N  9.277s 2025-06-27 09:11 Huhu #9346  1.483,2.950,2.350,2.494
CA N  9.277s 2026-03-11 01:46 lloslate #9347  1.583,2.567,2.516,2.611
SE N  9.278s 2023-07-03 08:10 simonixen #9348  1.483,2.583,2.650,2.562
MN Y  9.293s 2022-12-16 14:39 Guest6096 #9349  1.500,2.516,2.684,2.593
CA N  9.293s 2024-05-01 19:29 Ibby #9350  1.550,2.433,2.950,2.360
DK N  9.293s 2024-10-18 12:31 Suter mand #9351  1.450,2.816,2.534,2.493
GB N  9.293s 2025-01-24 07:21 10daystillxmas #9352  1.583,2.417,2.850,2.443
HR Y  9.293s 2026-03-20 22:01 Buhaca NA #9353  1.583,2.500,2.483,2.727
DE Y  9.294s 2023-04-07 12:12 MeanMachine0707 #9354  1.500,2.500,2.633,2.661
NL N  9.294s 2023-08-29 13:22 FunkyFrog33754 #9355  1.483,2.633,2.500,2.678
CA N  9.294s 2024-09-07 21:30 Thegripster #9356  1.566,2.484,2.600,2.644
GB N  9.294s 2026-02-01 09:31 JonathanLeCuber #9357  1.600,2.366,2.834,2.494
GB Y  9.294s 2026-03-04 16:44 Osna #9358  1.516,2.367,3.017,2.394
US Y  9.307s 2026-02-17 15:49 Guest7871 #9359  1.633,2.367,2.983,2.324
US N  9.308s 2023-04-11 03:36 Lonely James #9360  1.766,2.300,2.800,2.442
NZ N  9.310s 2022-12-12 02:17 IGET10S #9361  1.516,2.367,3.033,2.394
LT N  9.310s 2022-12-12 10:43 ThanosBoii #9362  1.666,2.534,2.600,2.510
AL Y  9.310s 2022-12-23 16:20 12 #9363  1.583,2.483,2.317,2.927
US N  9.310s 2023-02-10 12:18 NotAGdPlayer #9364  1.633,2.817,2.466,2.394
US Y  9.310s 2023-11-09 05:25 fishie #9365  1.483,2.533,2.600,2.694
AT Y  9.310s 2024-04-23 10:49 BasicFox474 #9366  1.733,2.550,2.500,2.527
NL N  9.310s 2025-12-31 13:16 lars #9367  1.550,2.533,2.633,2.594
RU N  9.311s 2022-12-14 07:12 dosik #9368  1.450,2.800,2.683,2.378
FI Y  9.311s 2024-02-04 22:24 Ohtis #9369  1.350,2.300,3.250,2.411
US N  9.325s 2023-04-12 20:25 blue fox #9370  1.466,2.834,2.583,2.442
GB Y  9.325s 2023-05-16 15:08 Jellycat1404 #9371  1.600,2.500,2.633,2.592
FR Y  9.326s 2023-12-28 17:17 netsubi #9372  1.550,2.450,2.833,2.493
BR N  9.327s 2022-12-16 02:12 PNP #9373  1.516,2.467,2.600,2.744
US Y  9.327s 2023-02-09 20:06 Ford #9374  1.600,2.633,2.583,2.511
EG N  9.327s 2023-07-02 21:28 noob man #9375  1.800,2.550,2.516,2.461
US Y  9.327s 2024-01-06 19:25 Guest1950 #9376  1.666,2.667,2.600,2.394
US N  9.327s 2024-03-12 02:19 Xdyz #9377  1.750,2.983,2.283,2.311
US Y  9.327s 2024-03-16 22:49 Guest1704 #9378  1.500,2.950,2.466,2.411
BE N  9.327s 2024-06-01 09:58 Guest6290 #9379  1.466,2.717,2.650,2.494
ES N  9.327s 2024-08-29 18:43 Caja #9380  1.533,2.917,2.433,2.444
AT N  9.327s 2025-02-27 17:02 LMG #9381  1.516,2.600,2.434,2.777
US N  9.327s 2025-07-20 12:57 TheDog1234 #9382  1.450,2.466,2.484,2.927
US N  9.327s 2026-03-25 18:27 Jupxter #9383  1.733,2.733,2.450,2.411
US Y  9.341s 2023-05-19 15:09 CharmingSpecter #9384  1.650,2.466,2.600,2.625
HU Y  9.343s 2022-12-16 22:52 Monkey #9385  1.650,2.516,2.567,2.610
MX N  9.343s 2023-02-06 00:50 RegularDuck_ #9386  1.450,2.516,2.684,2.693
HR N  9.343s 2023-09-23 07:18 Karlo_551 #9387  1.750,2.400,2.350,2.843
CH Y  9.343s 2024-05-27 20:27 Spooky0815 #9388  1.583,2.500,2.617,2.643
US N  9.343s 2026-04-05 22:04 Hugo Du Pasquier #9389  1.533,2.483,2.517,2.810
VN Y  9.343s 2026-05-09 06:29 MonnoM #9390  1.450,2.350,3.133,2.410
ES N  9.344s 2022-12-09 20:28 Abdul hassan #9391  1.616,2.250,3.167,2.311
PR N  9.344s 2022-12-12 19:55 Loli-92 #9392  1.616,2.484,2.716,2.528
JP N  9.344s 2023-04-06 05:29 nasuvvn #9393  1.566,2.584,2.616,2.578
US Y  9.344s 2025-02-01 02:25 もんじゃ #9394  1.750,2.500,2.616,2.478
US Y  9.344s 2026-01-18 06:10 King #9395  1.766,2.500,2.700,2.378
US N  9.357s 2023-05-08 16:45 wutwutupurbutt #9396  1.433,2.683,2.917,2.324
BD Y  9.357s 2026-01-08 14:11 Sanjy #9397  1.800,2.400,2.816,2.341
IE N  9.360s 2022-12-14 08:31 seven #9398  1.400,3.133,2.467,2.360
DK Y  9.360s 2022-12-17 16:32 CatalyticScratc #9399  1.516,2.384,2.983,2.477
DE N  9.360s 2023-02-11 02:12 DERWAHREABDI194 #9400  1.450,2.850,2.433,2.627
NL N  9.360s 2023-07-01 05:56 bigsauce #9401  1.683,2.250,2.983,2.444
FI Y  9.360s 2023-07-24 07:36 noob123homo #9402  1.666,2.367,2.667,2.660
NO Y  9.360s 2023-08-31 19:04 Kaskil #9403  1.750,2.366,2.817,2.427
US Y  9.360s 2023-09-10 15:10 prettypaige2 #9404  1.650,2.533,2.633,2.544
DE N  9.360s 2023-10-09 05:52 noah4ss #9405  1.733,2.517,2.583,2.527
IT Y  9.360s 2024-03-07 20:58 63Fede #9406  1.933,2.483,2.500,2.444
CZ N  9.360s 2026-01-14 08:15 FondCongratulat #9407  2.133,2.433,2.400,2.394
US N  9.374s 2024-10-08 20:53 ReaverKing92 #9408  1.633,2.567,2.733,2.441
KR N  9.374s 2025-01-04 01:49 최상훈 #9409  1.366,2.617,2.767,2.624
US N  9.376s 2023-04-19 18:36 Guest2406 #9410  1.450,2.916,2.717,2.293
AU N  9.377s 2023-04-11 15:08 MadsJ #9411  1.633,2.600,2.483,2.661
DE N  9.377s 2024-03-05 12:38 Fake #9412  1.566,2.717,2.333,2.761
US N  9.377s 2024-09-28 01:58 Comic #9413  1.633,2.533,2.567,2.644
US N  9.377s 2024-10-19 18:44 RedYeti #9414  1.666,2.400,2.834,2.477
LU N  9.377s 2024-11-03 17:43 Meow :3 #9415  1.616,2.367,2.267,3.127
FI Y  9.377s 2026-02-08 13:00 Guest7390 #9416  1.550,2.533,2.550,2.744
SE Y  9.378s 2023-09-10 12:23 GhostClawX #9417  1.900,2.466,2.500,2.512
NA N  9.390s 2023-05-07 09:42 DidacticTradema #9418  1.500,2.533,2.683,2.674
FR N  9.392s 2023-12-07 17:08 GamerWithNoName #9419  1.683,2.533,2.617,2.559
DE N  9.393s 2022-09-07 14:12 KULWAA #9420  1.700,2.600,2.516,2.577
CY N  9.393s 2022-12-18 18:04 toxicasidyou #9421  1.816,2.434,2.466,2.677
IT N  9.393s 2023-02-13 07:28 diocane #9422  1.600,2.350,2.483,2.960
BR N  9.393s 2024-01-29 22:33 GabrielMinitwo #9423  1.600,2.816,2.367,2.610
DE N  9.393s 2024-01-30 15:46 Lolig_Keks #9424  2.016,2.434,2.483,2.460
RU N  9.393s 2024-10-17 00:46 LamentableGuy756 #9425  1.450,2.883,2.750,2.310
PL N  9.393s 2025-05-15 17:02 Gruby baran #9426  1.633,2.467,2.783,2.510
PT Y  9.393s 2026-05-02 06:40 Casquinha2 #9427  1.800,2.400,2.933,2.260
RO Y  9.394s 2022-09-07 11:07 Sara_iza_ #9428  1.600,2.533,2.650,2.611
US N  9.394s 2023-03-15 05:56 JediAd #9429  1.516,2.367,2.450,3.061
RO N  9.394s 2023-10-07 12:49 dumyand #9430  2.183,2.283,2.450,2.478
LV Y  9.394s 2024-01-06 08:52 Nex #9431  1.516,2.367,2.300,3.211
DE N  9.394s 2024-08-16 16:40 Legend of this #9432  1.483,2.517,2.700,2.694
IL N  9.394s 2025-08-13 07:52 orithepro11 #9433  1.566,2.384,2.766,2.678
US N  9.410s 2022-12-07 00:25 MasterLOKA #9434  1.466,2.367,3.017,2.560
NO Y  9.410s 2022-12-15 16:33 VorpalSquid6732 #9435  1.833,2.533,2.517,2.527
ID N  9.410s 2022-12-21 04:20 Farhan_winAlt #9436  1.483,2.383,2.684,2.860
PL N  9.410s 2023-04-05 08:37 FreePlacki #9437  1.466,2.600,2.684,2.660
US Y  9.410s 2023-06-18 20:14 bigbertha #9438  1.633,2.667,2.516,2.594
AU Y  9.410s 2023-07-02 10:30 Woop #9439  1.450,2.666,2.634,2.660
GB N  9.410s 2023-08-06 16:34 Guest6912 #9440  1.700,2.566,2.534,2.610
RO N  9.410s 2023-10-06 12:37 DaniBoy102030 #9441  1.650,2.450,2.933,2.377
US N  9.410s 2023-11-04 20:43 Noob #9442  1.883,2.400,2.600,2.527
RU N  9.410s 2023-11-08 09:31 Dedslisi #9443  1.633,2.750,2.550,2.477
GB Y  9.410s 2024-07-27 19:55 Rattbag #9444  1.450,2.783,2.533,2.644
IE N  9.411s 2022-12-07 13:03 Trial Of One #9445  1.500,3.066,2.367,2.478
US N  9.411s 2023-02-10 18:06 Bojiggy #9446  1.616,2.917,2.383,2.495
GE N  9.426s 2022-12-18 09:27 exoFOLADAbest #9447  1.516,2.567,2.567,2.776
CW Y  9.427s 2022-12-17 21:26 kasa di e kacho #9448  1.450,2.316,3.317,2.344
GR N  9.427s 2022-12-19 13:17 Alex #9449  1.383,2.467,2.683,2.894
CZ Y  9.427s 2022-12-20 15:11 esla_cz #9450  1.683,2.567,2.550,2.627
DE N  9.427s 2023-03-19 09:15 TostyMcTost #9451  1.516,2.484,2.416,3.011
SE Y  9.427s 2023-08-06 10:35 MGCbumbi #9452  1.516,2.350,3.067,2.494
PL Y  9.427s 2023-12-14 16:21 Guest7815 #9453  1.550,2.500,2.783,2.594
US Y  9.427s 2024-03-21 11:03 CurricularDisda #9454  1.700,2.583,2.567,2.577
CO Y  9.427s 2024-07-24 18:54 DROID #9455  1.433,2.600,2.650,2.744
GB N  9.427s 2024-08-03 07:27 NegligentWit118 #9456  1.750,2.466,2.584,2.627
AU N  9.427s 2024-09-12 01:05 MC326 #9457  1.500,2.483,2.817,2.627
LU N  9.427s 2025-01-05 15:19 ……. #9458  1.583,2.717,2.366,2.761
DZ N  9.427s 2026-02-08 19:25 LILNOTIBA #9459  1.433,2.617,2.766,2.611
CH Y  9.428s 2022-12-11 10:59 Janik #9460  1.566,3.017,2.383,2.462
UA Y  9.443s 2023-02-12 07:04 Tolyanovix #9461  1.700,2.516,2.650,2.577
GB Y  9.443s 2024-02-25 19:49 Edward Avocado #9462  1.716,2.567,2.383,2.777
US Y  9.443s 2024-06-14 22:17 Nightmare #9463  2.233,2.517,2.350,2.343
US N  9.443s 2026-01-16 07:00 Min서 L. #9464  1.766,2.600,2.484,2.593
HU N  9.444s 2022-12-08 05:43 MesmerizingLink #9465  1.483,2.500,2.633,2.828
US N  9.444s 2023-04-08 15:28 emme18455 #9466  1.466,2.584,2.633,2.761
US N  9.444s 2023-05-06 01:39 Bbody27 #9467  1.616,2.400,2.484,2.944
US N  9.444s 2023-05-16 19:07 OliveEagle #9468  1.616,2.834,2.500,2.494
GB Y  9.444s 2023-06-07 14:32 RamblingAxis41 #9469  1.783,2.517,2.533,2.611
CA Y  9.444s 2023-08-06 06:19 FL Yoho #9470  1.516,2.734,2.766,2.428
PE Y  9.444s 2023-09-03 02:59 Guest1868 #9471  1.700,2.516,2.550,2.678
SK N  9.444s 2024-04-24 10:50 ratko #9472  1.383,2.833,2.734,2.494
US Y  9.444s 2024-06-13 00:42 Guest8026 #9473  1.600,2.516,2.434,2.894
FR Y  9.444s 2024-07-10 08:52 Guest7272 #9474  1.850,2.666,2.500,2.428
CA Y  9.458s 2024-02-21 03:46 KulS #9475  1.533,2.717,2.450,2.758
SA Y  9.460s 2022-12-16 22:06 Eithar #9476  1.833,2.533,2.534,2.560
BR Y  9.460s 2023-02-02 13:09 ghtoigo #9477  1.833,2.567,2.500,2.560
ZA Y  9.460s 2024-05-09 09:12 CyberLight #9478  1.533,2.450,2.617,2.860
AU N  9.460s 2024-07-07 12:21 Gamerward257 #9479  1.450,2.533,2.850,2.627
SK Y  9.460s 2026-03-07 16:48 RAPIDO #9480  1.700,2.466,2.767,2.527
FR N  9.461s 2024-12-25 18:35 Enzo #9481  1.400,2.750,2.616,2.695
SE N  9.461s 2025-02-20 11:56 Kurt #9482  1.716,2.667,2.600,2.478
FR Y  9.473s 2026-03-14 09:35 Guest7647 #9483  1.600,2.500,2.783,2.590
IT Y  9.477s 2022-12-07 23:32 Albe4562 #9484  1.500,2.450,2.683,2.844
VN N  9.477s 2022-12-11 06:24 OrchestralScarf #9485  1.450,2.500,2.766,2.761
IT N  9.477s 2022-12-11 12:20 mayuchad104 #9486  1.450,2.750,2.566,2.711
EG Y  9.477s 2022-12-18 14:23 Masry #9487  1.550,2.466,2.784,2.677
LU Y  9.477s 2022-12-19 17:47 BLUE #9488  1.733,2.717,2.500,2.527
HR N  9.477s 2022-12-28 21:32 perica #9489  1.666,2.600,2.500,2.711
RU Y  9.477s 2023-01-31 15:15 vedro #9490  1.900,2.683,2.400,2.494
CZ N  9.477s 2023-02-12 10:09 NumerousTrucker #9491  1.650,2.350,2.966,2.511
RO Y  9.477s 2023-05-20 20:57 Spigora is pro #9492  1.450,2.750,2.833,2.444
IN Y  9.477s 2024-08-03 04:46 Provider725 #9493  2.050,2.483,2.483,2.461
BA Y  9.493s 2022-12-15 17:54 ayda97 #9494  1.666,2.484,2.633,2.710
GR N  9.493s 2023-02-08 16:55 PanosRouss #9495  1.416,2.517,2.483,3.077
IT N  9.493s 2023-06-10 07:37 GIUPEPE #9496  1.516,2.684,2.750,2.543
NL Y  9.493s 2026-03-24 18:56 Guest7282 #9497  1.566,2.734,2.700,2.493
FR N  9.494s 2023-02-11 09:32 PECOT35 #9498  1.566,2.800,2.484,2.644
GB N  9.494s 2023-04-13 11:18 Guest7411 #9499  1.533,2.617,2.650,2.694
LV Y  9.494s 2023-07-02 12:21 xhwee #9500  1.800,2.566,2.484,2.644
DK Y  9.494s 2023-09-03 19:04 Guest2701 #9501  1.616,2.900,2.650,2.328
VN N  9.494s 2024-02-19 07:57 Guest2157 #9502  1.700,2.516,2.650,2.628
GB Y  9.494s 2024-08-03 21:48 Reach #9503  1.566,2.884,2.500,2.544
FR N  9.494s 2024-08-10 13:46 ORAMI1794 #9504  1.483,2.600,2.517,2.894
PH Y  9.494s 2026-04-22 10:43 tomicablox #9505  1.583,2.767,2.583,2.561
RU Y  9.509s 2022-12-18 02:57 Kari #9506  1.750,2.966,2.400,2.393
PH N  9.509s 2024-01-17 13:00 Isyyds #9507  1.566,2.334,2.500,3.109
IN Y  9.510s 2022-09-07 10:17 squishthecat #9508  1.650,2.433,2.617,2.810
IT N  9.510s 2022-09-07 13:34 Tecno007 #9509  1.533,2.650,2.667,2.660
FI N  9.510s 2022-12-14 15:33 Ln1 #9510  1.516,2.517,2.783,2.694
NZ Y  9.510s 2022-12-23 08:12 SpeedyCube #9511  1.383,2.467,2.666,2.994
GB N  9.510s 2023-02-12 13:54 JihadiJohn69 #9512  1.383,2.567,2.600,2.960
US Y  9.510s 2023-05-24 08:46 alimostafaei18 #9513  2.033,2.467,2.550,2.460
CZ N  9.510s 2023-12-02 20:23 Guest9645 #9514  1.650,2.500,3.050,2.310
US Y  9.510s 2024-07-12 19:06 RogueDetective9 #9515  1.700,2.383,2.750,2.677
US N  9.510s 2025-04-03 05:57 🌌Stardust Nebula🌌 #9516  1.733,2.317,2.850,2.610
US Y  9.510s 2026-03-11 02:53 Mushy Meatball #9517  1.633,2.617,2.700,2.560
AT N  9.511s 2024-11-10 18:59 AsceticPalate77 #9518  1.650,2.566,2.600,2.695
UA N  9.526s 2025-07-21 01:28 pryncekillaz #9519  1.700,2.733,2.433,2.660
RU N  9.527s 2022-12-15 07:03 Koxau #9520  1.600,2.516,2.717,2.694
GB N  9.527s 2023-04-11 12:04 Guest7050 #9521  1.500,2.833,2.617,2.577
FR Y  9.527s 2023-04-15 13:03 Jujuf08 #9522  1.583,2.833,2.567,2.544
GB N  9.527s 2023-04-27 09:25 CRXbinqVFX #9523  1.533,2.883,2.517,2.594
NL N  9.527s 2023-05-10 18:10 T0eljo #9524  1.466,2.617,2.750,2.694
PL Y  9.527s 2023-08-15 09:21 iliKeDoGsAlot2 #9525  1.650,2.783,2.700,2.394
US N  9.527s 2023-10-07 15:55 Oliver #9526  1.616,2.834,2.550,2.527
US N  9.527s 2023-12-02 05:58 hhhhhhhhhhhhhhh #9527  1.500,2.450,3.100,2.477
MY N  9.527s 2024-02-05 12:07 R1e #9528  1.566,2.467,2.967,2.527
PL Y  9.527s 2024-02-22 13:19 Ostapsz #9529  1.683,2.450,2.450,2.944
GB Y  9.527s 2024-04-09 16:31 clover #9530  1.450,2.316,3.000,2.761
TW N  9.527s 2026-03-27 07:56 kirinking7070 #9531  1.566,2.584,2.700,2.677
KR Y  9.527s 2026-04-22 12:19 ?¿? #9532  1.550,2.650,2.616,2.711
RO N  9.540s 2022-12-17 16:47 ROBYtu48 #9533  1.516,2.450,3.317,2.257
LT Y  9.544s 2022-12-22 08:52 Jonazer #9534  1.383,2.633,2.700,2.828
CH N  9.544s 2023-05-20 22:28 Guest3838 #9535  1.966,2.717,2.567,2.294
SE Y  9.544s 2026-03-13 15:09 McGregor #9536  1.566,2.617,2.617,2.744
AR Y  9.544s 2026-04-13 23:05 Jorge Yainikoski #9537  1.833,2.483,2.350,2.878
GB N  9.558s 2023-02-08 15:12 NoahGalactic #9538  1.450,2.850,2.750,2.508
FR Y  9.558s 2026-02-26 22:36 Kamer19 #9539  1.650,2.833,2.783,2.292
GB N  9.560s 2023-04-17 16:19 Guest6469 #9540  1.583,2.567,2.650,2.760
TR N  9.560s 2024-01-24 08:27 kralinglkji #9541  1.566,2.550,2.817,2.627
US N  9.560s 2024-01-28 22:22 blackleaftoh #9542  1.783,2.467,2.816,2.494
FR N  9.560s 2024-02-07 11:16 Guest2631 #9543  1.516,2.634,2.700,2.710
GB N  9.560s 2024-04-11 12:57 ItzEthan #9544  1.500,2.483,3.017,2.560
US Y  9.560s 2024-07-19 01:57 ExoLotlollie #9545  1.500,2.633,2.750,2.677
FR N  9.561s 2023-09-13 12:40 Yalou #9546  1.683,2.500,2.617,2.761
DE N  9.561s 2025-03-21 13:38 Eagel #9547  1.350,2.716,2.734,2.761
NO Y  9.575s 2022-12-14 19:52 Iop #9548  2.350,2.316,2.450,2.459
AU N  9.576s 2022-09-07 03:36 adolonyee #9549  1.750,2.533,2.583,2.710
GR N  9.577s 2022-12-11 21:29 PanosMos004 #9550  1.583,2.517,2.650,2.827
GB N  9.577s 2023-04-15 18:20 BomTheTom3 #9551  1.450,2.650,2.800,2.677
NZ N  9.577s 2023-07-22 08:53 bosssgf #9552  2.083,2.483,2.467,2.544
AT N  9.577s 2023-07-26 05:50 FabBeyond #9553  1.533,2.900,2.383,2.761
RU Y  9.577s 2023-12-03 19:10 pidor #9554  1.650,2.350,3.233,2.344
BR N  9.577s 2025-04-23 15:16 🌻x𝙾𝗅𝑖ⓥꫀŕx🌻 #9555  1.800,2.483,2.650,2.644
BY Y  9.577s 2026-03-24 17:26 lickerchik|mvp #9556  1.566,2.600,2.667,2.744
NL N  9.578s 2023-04-14 08:11 MarkiBoy6 #9557  1.800,2.333,2.900,2.545
RU N  9.590s 2024-09-21 17:27 NTikCSF:SalFourDaimPhoneX #9558  1.566,2.784,2.916,2.324
IL N  9.592s 2026-05-02 10:43 kristal #9559  1.583,2.800,2.650,2.559
CO N  9.593s 2022-12-26 07:05 HaughtyTRex30 #9560  1.800,2.416,2.534,2.843
US Y  9.593s 2023-06-18 02:46 Sprxy #9561  1.783,2.367,2.733,2.710
FI N  9.593s 2023-09-26 08:01 kukluxklan supp #9562  1.833,2.633,2.667,2.460
US N  9.593s 2023-12-07 05:29 ez chz #9563  1.433,2.817,2.733,2.610
RO N  9.593s 2024-11-22 16:02 Vlad #9564  1.750,2.633,2.767,2.443
CZ Y  9.594s 2022-12-09 13:21 JPmanOF #9565  1.766,2.934,2.533,2.361
AT N  9.594s 2023-03-24 13:52 TRMT #9566  1.766,2.517,2.833,2.478
MV Y  9.594s 2023-08-01 10:21 Chafistan #9567  1.866,2.500,2.684,2.544
US N  9.594s 2024-08-03 08:42 ChaoticDragon73 #9568  1.750,2.666,2.634,2.544
ZA Y  9.594s 2026-04-11 17:03 Venus #9569  1.483,2.533,2.817,2.761
FR Y  9.594s 2026-05-06 19:12 Boody #9570  1.600,2.850,2.416,2.728
US Y  9.610s 2023-07-23 17:02 brynallyne #9571  1.466,2.734,2.783,2.627
IN Y  9.610s 2023-12-15 05:23 racist #9572  1.683,2.600,2.667,2.660
GB N  9.610s 2024-05-14 07:03 77gameking77 #9573  2.033,2.383,2.450,2.744
PT N  9.610s 2024-09-22 17:25 Skz #9574  1.850,2.633,2.667,2.460
IT Y  9.610s 2026-02-08 12:40 lollo_0814 #9575  1.783,2.550,2.700,2.577
CI Y  9.624s 2022-12-22 14:17 NONAME #9576  1.683,2.450,2.617,2.874
CZ Y  9.627s 2022-12-17 13:47 your mom #9577  1.733,2.417,2.383,3.094
IE Y  9.627s 2022-12-25 02:36 Guest4469 #9578  1.800,2.516,2.700,2.611
HR Y  9.627s 2023-01-31 12:14 DemonicMole184 #9579  1.533,2.767,2.850,2.477
NL N  9.627s 2023-05-06 14:57 NPC-420 #9580  1.700,2.583,2.483,2.861
US Y  9.627s 2024-01-16 18:02 Victoria7071 #9581  1.800,2.533,2.633,2.661
US Y  9.627s 2024-03-16 21:46 Luca #9582  1.500,2.950,2.783,2.394
DE Y  9.627s 2024-03-25 16:12 PinkPredator348 #9583  1.800,2.500,2.616,2.711
US Y  9.627s 2024-07-21 15:26 Blue Monkey #9584  1.383,2.750,2.850,2.644
AR Y  9.627s 2024-08-06 19:35 Valeri #9585  1.733,2.567,2.583,2.744
DE Y  9.627s 2026-04-03 18:11 Milfhuntrr #9586  1.966,2.584,2.500,2.577
US Y  9.643s 2024-04-30 16:31 Guest9721 #9587  1.800,2.516,2.717,2.610
IT N  9.643s 2024-05-03 05:52 amolepufff #9588  1.750,2.816,2.250,2.827
US N  9.643s 2024-05-11 21:13 Andr3wTat3 #9589  1.733,2.533,2.817,2.560
EE N  9.660s 2022-12-13 10:48 KrisSucksashell #9590  1.883,2.500,2.517,2.760
BG Y  9.660s 2022-12-15 13:49 megreen34 #9591  2.016,2.400,2.434,2.810
DE N  9.660s 2023-02-09 12:59 MinYoongi #9592  1.650,2.616,2.700,2.694
GB N  9.660s 2023-06-23 21:13 Bob the Jeff #9593  1.700,2.566,2.817,2.577
PL Y  9.660s 2023-10-06 09:16 Biela #9594  1.483,3.017,2.533,2.627
NO Y  9.660s 2024-08-03 19:53 Guest5698 #9595  1.516,2.534,3.050,2.560
CA Y  9.660s 2026-03-08 05:46 Dr Tiger #9596  1.533,2.483,2.634,3.010
AT Y  9.676s 2026-01-22 10:22 Momo #9597  1.800,2.583,2.667,2.626
DK N  9.677s 2022-12-18 10:14 SublimeEmployee #9598  1.450,2.933,2.917,2.377
AF N  9.677s 2023-02-09 07:52 penisgarage #9599  1.500,2.566,3.084,2.527
FR Y  9.677s 2023-04-29 10:00 T1ldMa #9600  1.733,2.817,2.600,2.527
SK Y  9.677s 2024-04-08 12:48 PONCO8000 #9601  1.450,2.800,2.683,2.744
ES Y  9.678s 2022-12-08 15:57 Mrtomato #9602  1.783,2.517,2.733,2.645
JP Y  9.693s 2024-01-30 10:36 masyumaro #9603  1.416,3.250,2.300,2.727
BG N  9.694s 2025-12-15 11:17 Kaloyanoww #9604  1.516,2.750,3.017,2.411
CZ N  9.707s 2022-12-09 17:41 Guest4555 #9605  1.583,3.100,2.717,2.307
SI Y  9.710s 2022-12-11 10:41 CapyRene #9606  1.666,2.534,2.666,2.844
NO N  9.710s 2022-12-22 11:38 tistin85 #9607  1.533,2.483,2.650,3.044
BA N  9.710s 2023-10-22 16:13 Guest6165 #9608  1.450,2.366,2.500,3.394
PL Y  9.710s 2024-04-11 18:53 GraciousNote3 #9609  1.750,2.600,2.666,2.694
RO Y  9.710s 2026-01-16 08:51 alexcos1 #9610  1.533,2.333,2.934,2.910
US Y  9.711s 2023-02-07 23:59 Mmg #9611  1.516,2.684,2.866,2.645
IL Y  9.727s 2022-12-08 13:56 guraloni #9612  1.400,2.816,2.600,2.911
BE Y  9.727s 2023-10-26 22:01 Maxou Pixou #9613  1.616,2.584,2.966,2.561
US Y  9.727s 2024-03-17 14:15 Connor #9614  1.600,2.566,2.784,2.777
AU Y  9.727s 2026-02-09 11:10 Cloudy #9615  1.883,2.633,2.584,2.627
RU Y  9.743s 2022-09-07 02:25 Guest2022 #9616  1.816,2.500,2.700,2.727
NO N  9.743s 2023-01-31 14:53 Mari #9617  1.500,2.333,2.367,3.543
ES Y  9.743s 2023-06-18 09:35 MxrcozRB #9618  1.450,2.833,2.683,2.777
DK Y  9.744s 2022-12-20 16:41 Guest9466 #9619  1.466,2.617,2.650,3.011
IN Y  9.744s 2023-02-11 20:29 i want to lose #9620  1.516,2.784,2.616,2.828
US N  9.744s 2023-11-18 03:50 Guest6569 #9621  1.416,2.700,3.017,2.611
US Y  9.744s 2026-01-09 11:09 BygoneLoop14 #9622  1.733,2.533,2.734,2.744
RO N  9.761s 2023-05-10 20:41 davidd7 #9623  2.200,2.583,2.650,2.328
CA Y  9.761s 2024-11-29 05:08 ! Awesome_W #9624  1.783,2.550,2.583,2.845
IS Y  9.775s 2024-07-15 10:25 SwiftDeth69 #9625  1.833,2.967,2.483,2.492
NL N  9.777s 2023-03-12 12:21 SlayNino16 #9626  1.850,2.433,2.883,2.611
CA N  9.777s 2023-10-11 01:47 moom825 #9627  1.666,2.700,2.767,2.644
US Y  9.777s 2024-03-30 22:15 womp womp #9628  1.833,2.450,2.800,2.694
AU Y  9.777s 2024-04-08 02:43 0_0 #9629  1.550,2.616,2.700,2.911
EG Y  9.777s 2024-05-06 13:43 Omartarek #9630  2.116,2.467,2.417,2.777
RU N  9.777s 2024-05-29 20:57 Guest8416 #9631  1.450,2.583,2.917,2.827
NL N  9.777s 2025-05-21 17:21 Moongoddess #9632  1.700,2.933,2.600,2.544
US N  9.791s 2023-10-01 18:38 urgirl_kenz #9633  1.716,2.767,2.750,2.558
MX Y  9.794s 2023-06-08 00:14 SirGereint #9634  1.666,2.684,2.683,2.761
FR N  9.794s 2024-04-20 10:57 M22 #9635  1.466,2.600,2.950,2.778
DK N  9.810s 2022-12-18 13:40 P1kmak #9636  2.066,2.584,2.816,2.344
US N  9.810s 2023-02-07 01:10 Strait_W_Mans #9637  2.433,2.350,2.500,2.527
LT N  9.810s 2023-02-08 11:30 Guest8837 #9638  1.700,3.016,2.450,2.644
US N  9.810s 2023-08-08 11:07 exo_mish #9639  2.216,2.417,2.583,2.594
MD Y  9.810s 2024-04-26 05:28 DD1 #9640  1.400,2.983,2.867,2.560
UA Y  9.810s 2024-08-10 05:44 FormerTranspare #9641  1.750,2.650,2.633,2.777
CZ N  9.811s 2022-12-20 06:35 YeahBuddyyy #9642  1.450,2.300,3.016,3.045
AR N  9.811s 2024-02-07 20:59 Reo #9643  1.366,3.317,2.467,2.661
PT N  9.811s 2025-04-22 15:21 Paranoydude #9644  1.483,2.467,2.933,2.928
NZ Y  9.826s 2022-12-16 00:49 Guest8922 #9645  1.900,2.483,2.983,2.460
HR Y  9.827s 2022-12-07 12:36 loser #9646  1.433,2.683,2.750,2.961
ES N  9.827s 2022-12-20 15:47 denniiissss #9647  1.800,2.583,2.700,2.744
GB N  9.827s 2023-02-27 07:18 TTV Fiverkid #9648  1.783,2.633,2.667,2.744
SE Y  9.827s 2023-10-31 16:07 Carl #9649  1.550,2.816,2.784,2.677
BE N  9.827s 2024-04-23 16:48 Frites 🍟🐶 #9650  1.933,2.600,2.583,2.711
US N  9.827s 2026-02-16 22:15 coolguy88888 #9651  1.516,2.917,2.717,2.677
PL Y  9.827s 2026-05-09 08:10 Guest8026 #9652  1.483,2.583,2.917,2.844
BE N  9.843s 2026-03-03 16:34 Elias_# #9653  1.450,2.966,2.717,2.710
US Y  9.843s 2026-03-07 15:19 Guest3041 #9654  1.566,2.417,2.450,3.410
TR N  9.844s 2022-12-18 17:29 ZehirBerat #9655  1.616,2.367,2.517,3.344
PL Y  9.844s 2026-02-12 22:14 Genia #9656  1.733,2.617,2.750,2.744
IT Y  9.860s 2022-12-25 19:41 heda #9657  1.950,2.583,2.767,2.560
LT N  9.860s 2023-04-09 05:19 gessaff #9658  1.483,2.850,2.817,2.710
US Y  9.860s 2026-01-29 19:09 Beanskinz #9659  1.566,2.767,2.700,2.827
PH N  9.860s 2026-05-04 11:52 InSaein #9660  1.883,2.450,2.683,2.844
BE N  9.861s 2024-01-06 18:10 Guest9556 #9661  1.750,3.050,2.550,2.511
US N  9.873s 2026-05-05 23:23 Snoopy #9662  1.383,2.783,2.867,2.840
NL Y  9.877s 2023-10-25 13:41 Panddog #9663  2.416,2.584,2.466,2.411
NL N  9.890s 2023-02-07 11:10 AlphaRuben #9664  1.716,2.617,3.217,2.340
US Y  9.893s 2022-12-07 00:09 DootWoot #9665  1.700,2.766,2.717,2.710
ES Y  9.893s 2023-12-07 13:58 BufordVanSton #9666  1.916,2.584,2.733,2.660
PS N  9.907s 2024-05-25 07:21 Guest6831 #9667  1.550,3.166,2.884,2.307
AR Y  9.910s 2024-08-16 01:45 20deoktubre #9668  1.466,2.667,3.317,2.460
HK N  9.910s 2024-10-11 03:02 J-cultivator #9669  1.983,2.600,2.650,2.677
CZ N  9.911s 2022-12-23 19:49 Luffy-san #9670  1.866,2.667,2.600,2.778
RU Y  9.926s 2024-08-07 07:17 Danon4ike #9671  2.200,2.483,2.650,2.593
GB N  9.927s 2023-12-05 07:36 Dabatron59 #9672  1.600,2.633,2.850,2.844
GB N  9.927s 2025-12-17 19:15 JaspJ22 #9673  2.150,2.533,2.733,2.511
ES Y  9.927s 2026-01-04 15:18 DiegoRodas12 #9674  1.916,2.634,2.650,2.727
VN N  9.943s 2023-05-13 07:33 Guest2158 #9675  1.433,2.683,2.850,2.977
US Y  9.943s 2026-02-04 03:47 tdsoag4794 #9676  1.700,2.383,2.750,3.110
FR Y  9.944s 2025-01-16 14:41 Baxter #9677  1.533,2.617,2.750,3.044
US Y  9.944s 2026-04-06 03:06 Do_The_Mold #9678  1.950,2.466,2.667,2.861
DE Y  9.960s 2023-08-07 16:53 Lega16 #9679  2.016,2.784,2.483,2.677
SE Y  9.960s 2024-01-21 12:09 Gethack #9680  2.133,2.500,2.683,2.644
AU N  9.960s 2025-12-20 08:35 freney #9681  1.716,2.784,2.700,2.760
US N  9.960s 2026-05-07 03:03 Noir_Night #9682  1.750,2.783,2.800,2.627
FR N  9.975s 2023-12-20 11:35 Guest9702 #9683  1.533,2.467,2.900,3.075
IL N  9.977s 2023-09-25 10:40 eleven #9684  1.483,2.717,3.100,2.677
CH N  9.977s 2023-12-10 08:13 TheDMS2 #9685  1.916,2.984,2.466,2.611
DE N  9.977s 2024-07-11 14:02 C4N4N #9686  1.800,2.683,2.733,2.761
US Y  9.977s 2026-01-16 01:22 ScabTheSidewalk #9687  1.800,2.850,2.650,2.677
ES Y  9.977s 2026-05-02 23:02 293 #9688  1.700,2.633,2.750,2.894
AT Y  9.977s 2026-05-05 21:09 Eriniya #9689  1.783,2.683,2.684,2.827
FI Y  9.992s 2022-12-18 15:27 Velttu #9690  1.566,3.234,2.533,2.659
RO N  9.993s 2022-12-19 17:21 sprai112 #9691  1.783,2.617,2.683,2.910
IT N  9.993s 2024-09-30 06:20 3K_qwerty #9692  1.733,2.733,2.784,2.743
ES N  9.994s 2022-12-24 11:04 Adrianuuus #9693  1.583,2.717,2.716,2.978
US Y  9.994s 2024-05-03 17:37 Eddie #9694  1.966,2.450,2.917,2.661
IE Y  9.994s 2025-12-17 22:32 Reeen08 #9695  1.516,2.317,3.333,2.828
ES N 10.010s 2022-12-24 18:06 LUKAS #9696  2.366,2.284,2.450,2.910
GB Y 10.027s 2026-04-04 11:39 ToadMan #9697  1.866,2.584,2.783,2.794
CY N 10.028s 2023-02-21 04:17 Darkcharizard #9698  2.416,2.800,2.317,2.495
NZ Y 10.043s 2022-12-10 07:43 BillyNZ #9699  1.900,2.733,2.833,2.577
PT Y 10.043s 2022-12-11 15:29 Guest2247 #9700  1.616,2.600,3.184,2.643
BG N 10.043s 2023-02-01 15:24 Guest3456 #9701  1.716,2.567,3.033,2.727
US Y 10.043s 2026-01-26 06:00 rhyren #9702  1.816,2.584,2.866,2.777
LB N 10.057s 2023-06-25 09:54 TT_dadyclan69 #9703  1.350,2.683,3.233,2.791
TR N 10.060s 2022-12-15 18:31 Ardarda #9704  1.966,2.667,2.833,2.594
HU N 10.060s 2022-12-21 00:44 l3lackSky0 #9705  1.466,2.984,2.800,2.810
BE Y 10.060s 2023-11-02 10:14 Protato #9706  2.183,2.667,2.633,2.577
JP Y 10.060s 2024-03-10 11:35 Ken #9707  1.783,2.650,2.817,2.810
CA Y 10.060s 2024-10-20 03:43 occona #9708  1.716,2.784,2.866,2.694
DE N 10.061s 2023-05-16 23:16 Guest8624 #9709  1.566,2.784,3.000,2.711
FR Y 10.091s 2024-01-11 00:54 VictorLT #9710  1.500,2.950,2.916,2.725
IT N 10.093s 2023-12-02 12:44 DazedGuitarist7 #9711  1.650,3.083,2.467,2.893
HK N 10.093s 2026-05-03 10:04 HyperPikaXD #9712  1.450,3.116,2.767,2.760
NO N 10.094s 2022-12-17 17:00 potetsekkers12 #9713  1.666,2.567,3.050,2.811
SE N 10.094s 2024-09-15 15:09 Caspergo2011 #9714  1.483,2.733,3.067,2.811
US N 10.109s 2023-09-12 13:23 TestieMunchr #9715  2.150,2.633,2.667,2.659
GR N 10.110s 2022-12-14 20:51 giannis13 #9716  1.866,2.734,2.700,2.810
HR Y 10.110s 2022-12-20 18:49 mmr #9717  1.650,2.700,2.833,2.927
GB N 10.110s 2023-06-10 07:47 justsaygg #9718  1.666,2.450,3.117,2.877
BE Y 10.110s 2023-07-26 10:02 Victory #9719  1.666,2.917,2.733,2.794
FR N 10.110s 2024-12-09 10:30 thazuka #9720  1.900,2.750,2.733,2.727
BR Y 10.110s 2026-03-29 23:54 dms_17 #9721  1.433,3.050,3.217,2.410
ZA Y 10.127s 2022-10-11 08:11 SLEEPY #9722  1.950,2.700,2.733,2.744
EE Y 10.127s 2022-12-16 08:23 RodTuberGaming #9723  1.866,2.834,2.433,2.994
RU Y 10.127s 2022-12-16 19:19 Agal #9724  1.583,2.933,2.717,2.894
CZ N 10.127s 2024-05-05 12:07 NokterBalbulus #9725  1.983,2.883,2.784,2.477
US Y 10.127s 2025-12-29 21:42 Bill nye #9726  1.866,2.434,3.100,2.727
RU N 10.127s 2026-02-07 20:05 urmama #9727  1.550,2.833,2.800,2.944
LV N 10.140s 2022-12-09 06:49 NobodyLmao #9728  1.850,2.700,3.000,2.590
US N 10.143s 2023-09-30 12:57 NuclearBurrit0 #9729  1.533,2.967,2.833,2.810
TR N 10.144s 2022-12-23 19:21 AskimIrem #9730  1.733,2.967,3.066,2.378
AT N 10.144s 2023-07-26 12:17 Mandalorian #9731  1.600,2.583,2.933,3.028
CA N 10.144s 2023-10-09 01:06 Guest9168 #9732  1.733,2.583,3.084,2.744
BE N 10.144s 2024-06-01 10:05 Guest7466 #9733  2.050,2.633,2.667,2.794
US N 10.160s 2023-05-14 20:47 Dylan s #9734  1.583,2.950,2.900,2.727
CA Y 10.160s 2024-10-10 23:47 dante #9735  1.950,2.316,2.817,3.077
US N 10.160s 2024-11-24 22:28 Guest7946 #9736  1.916,2.800,2.850,2.594
SE N 10.160s 2026-05-04 16:33 Guest4377 #9737  1.566,2.784,2.750,3.060
DE Y 10.161s 2024-02-14 21:29 Guest4091 #9738  2.483,2.867,2.366,2.445
IE N 10.177s 2022-12-25 20:56 Juicybai26 #9739  1.783,2.717,2.816,2.861
CZ Y 10.177s 2025-12-24 12:41 The Polda #9740  1.516,3.467,2.483,2.711
ME Y 10.191s 2024-04-02 11:12 boki2134 #9741  2.416,2.467,2.583,2.725
UA Y 10.193s 2023-01-31 18:50 GalaxyFox #9742  1.666,2.584,3.216,2.727
FI N 10.193s 2024-02-11 14:29 Guest8794 #9743  1.866,2.700,2.884,2.743
PL N 10.193s 2025-07-14 00:38 mucha #9744  1.550,2.400,3.066,3.177
GR N 10.194s 2022-12-18 19:10 evti #9745  2.366,2.767,2.450,2.611
US N 10.194s 2023-12-11 23:52 Monster34529 #9746  1.683,2.783,2.800,2.928
IE N 10.225s 2023-03-25 15:18 gamerguy420du #9747  1.700,3.066,2.900,2.559
US Y 10.227s 2022-10-11 07:17 Bree420 #9748  1.883,2.800,2.783,2.761
US N 10.227s 2023-09-20 02:41 ThatBlackFox #9749  1.533,3.000,2.617,3.077
DK N 10.227s 2025-06-10 13:02 Dadlerman #9750  1.533,2.883,3.034,2.777
DK N 10.243s 2022-12-22 06:09 GEMRAS #9751  1.450,2.783,3.400,2.610
US Y 10.243s 2023-05-16 02:50 gape horn #9752  2.066,2.784,2.800,2.593
RS N 10.243s 2023-08-28 05:51 braindead #9753  1.566,3.000,2.967,2.710
FR N 10.243s 2024-01-08 08:29 Frifeu45 #9754  2.233,2.383,3.217,2.410
TR N 10.243s 2026-02-07 10:20 SplitFill28 #9755  1.450,2.583,3.200,3.010
IL Y 10.243s 2026-03-14 21:47 Guest4343 #9756  1.483,2.667,2.750,3.343
BR Y 10.260s 2022-09-07 04:39 Felipechazao #9757  1.666,2.600,3.417,2.577
DK N 10.260s 2023-03-21 13:24 Milleshake69 #9758  1.600,2.750,2.750,3.160
GB N 10.260s 2023-08-13 16:13 Exo master #9759  1.983,2.950,2.700,2.627
JP Y 10.260s 2024-01-28 01:20 KABAO #9760  1.666,2.700,2.917,2.977
US Y 10.260s 2026-03-13 22:46 AsaAce1212 #9761  1.616,2.734,2.900,3.010
US Y 10.260s 2026-05-05 02:11 Gonklinea #9762  1.600,2.733,2.833,3.094
US N 10.277s 2023-04-06 03:22 Eleven #9763  1.650,3.133,2.717,2.777
RU N 10.277s 2024-06-01 12:13 level up #9764  1.600,2.850,2.866,2.961
IT Y 10.278s 2023-05-15 17:42 CherryChangelin #9765  1.450,3.183,2.850,2.795
LT N 10.293s 2022-12-26 13:09 Henrikax #9766  1.533,2.967,2.816,2.977
DE N 10.293s 2023-12-11 09:02 Octoboy0 #9767  1.866,2.750,2.767,2.910
NL Y 10.294s 2024-05-18 16:56 diegosuper2005 #9768  1.783,3.050,2.950,2.511
ES Y 10.307s 2022-12-18 18:00 Nellyy uwu #9769  1.716,2.900,2.934,2.757
RS Y 10.310s 2023-04-10 20:03 Vacpeqw #9770  2.350,2.450,2.933,2.577
AU Y 10.310s 2023-11-11 07:18 COONNIR #9771  2.050,2.733,2.800,2.727
BE N 10.310s 2023-12-11 06:45 adolf hitler #9772  2.216,2.484,2.916,2.694
HU Y 10.310s 2023-12-13 11:08 Panni #9773  1.716,3.050,2.817,2.727
DE N 10.324s 2026-04-01 19:49 Mike.nbg #9774  1.900,3.050,2.950,2.424
NP Y 10.327s 2022-12-08 10:24 Guest9055 #9775  1.783,2.883,2.884,2.777
CZ N 10.327s 2022-12-26 13:42 Matak132 #9776  1.650,2.933,2.633,3.111
FI Y 10.327s 2023-05-08 08:11 Alehandro #9777  1.516,2.984,2.700,3.127
BR N 10.343s 2025-03-25 15:37 xicão #9778  1.766,2.667,2.967,2.943
FR N 10.360s 2024-09-23 10:59 solideur64 #9779  2.400,2.633,2.783,2.544
FR N 10.360s 2024-11-11 10:26 Serpentard_VIP #9780  1.566,2.984,2.950,2.860
IT Y 10.377s 2022-12-11 19:09 micheliso #9781  1.950,2.900,2.750,2.777
RU Y 10.377s 2024-04-17 06:39 Guest1496 #9782  1.733,2.883,2.867,2.894
US Y 10.377s 2024-06-03 20:27 Beowulfe #9783  1.833,3.133,2.550,2.861
JP Y 10.377s 2025-10-30 14:38 くじ井 #9784  1.900,2.516,2.917,3.044
NL N 10.410s 2024-08-06 10:22 Emma_flamingo #9785  1.616,3.500,2.650,2.644
AF Y 10.411s 2022-12-15 05:29 mar #9786  1.750,2.916,2.800,2.945
NZ N 10.411s 2024-07-16 01:16 Kane #9787  1.500,2.683,3.467,2.761
PL Y 10.427s 2026-03-12 20:24 No-Name #9788  1.550,2.683,2.700,3.494
US Y 10.427s 2026-05-03 20:17 agentbeans #9789  1.966,2.684,2.816,2.961
GB N 10.428s 2023-06-19 07:31 PalmEXO #9790  1.850,2.700,3.250,2.628
US Y 10.443s 2023-06-27 23:18 MP43FK #9791  1.883,2.750,3.000,2.810
CA Y 10.443s 2026-05-05 23:23 vekko #9792  2.233,2.767,2.750,2.693
US N 10.457s 2025-06-24 23:20 Zak #9793  1.550,2.716,3.450,2.741
GB Y 10.477s 2024-07-19 15:51 Guest7560 #9794  1.633,2.817,2.883,3.144
GR N 10.493s 2022-12-23 19:46 STATHIS #9795  1.633,3.017,3.200,2.643
US Y 10.493s 2023-01-31 05:14 Yomama #9796  1.850,2.583,3.300,2.760
US N 10.494s 2023-02-12 19:00 Kitty_cre #9797  1.850,3.350,2.766,2.528
CA Y 10.494s 2023-05-31 20:05 Caleb2Ayden #9798  2.133,2.800,2.900,2.661
IN Y 10.494s 2024-02-17 13:20 Shaggy #9799  1.816,2.767,2.900,3.011
RO N 10.510s 2022-12-14 20:39 sugi #9800  1.483,2.417,3.983,2.627
IT N 10.510s 2022-12-20 06:30 MechanizedTyran #9801  1.983,2.683,3.100,2.744
US N 10.510s 2023-02-25 16:29 RapidzIsBad #9802  1.483,2.617,3.333,3.077
US N 10.510s 2024-09-20 01:52 nickher #9803  1.683,3.033,3.017,2.777
IN Y 10.510s 2026-03-07 09:58 Rosh #9804  1.916,3.184,2.700,2.710
NZ N 10.511s 2022-12-08 04:05 Lo0ney_rooney #9805  2.200,2.650,3.133,2.528
US N 10.511s 2024-01-16 04:53 gdsandstorm1247 #9806  1.733,3.417,2.600,2.761
US Y 10.527s 2022-09-07 04:40 Mach #9807  1.833,2.883,2.784,3.027
US Y 10.543s 2023-01-04 02:48 ohhyes4693 #9808  2.533,2.283,2.784,2.943
PL N 10.544s 2023-04-10 07:13 Zajcu94 #9809  2.083,2.817,2.966,2.678
BE N 10.559s 2023-11-13 10:15 runevdv #9810  1.750,3.250,2.650,2.909
CZ N 10.560s 2022-12-16 14:10 m3a5r5 #9811  1.650,2.850,2.933,3.127
CH Y 10.560s 2022-12-16 17:02 EvocativeSlit28 #9812  1.850,2.650,2.966,3.094
US N 10.577s 2023-12-31 13:10 Guest9112 #9813  2.066,2.634,3.050,2.827
GB N 10.593s 2023-05-29 08:46 Katiebot211 #9814  1.566,3.050,2.950,3.027
RO Y 10.594s 2022-12-21 13:53 MagnificentSala #9815  1.450,3.266,2.684,3.194
US Y 10.594s 2026-01-29 23:40 ajñānaṃ ānandam #9816  1.900,2.800,2.916,2.978
FR Y 10.611s 2024-08-14 22:50 LoQi #9817  1.450,3.516,2.800,2.845
US Y 10.611s 2026-03-15 05:51 tisbeducky #9818  1.900,2.833,2.800,3.078
SA N 10.626s 2024-08-06 13:18 Mohammed #9819  2.216,2.917,2.750,2.743
AU Y 10.627s 2023-12-24 08:35 exo_Boondy #9820  1.516,3.217,3.083,2.811
LT Y 10.627s 2024-03-17 07:36 Paik my pake #9821  2.050,2.966,2.817,2.794
JP N 10.627s 2024-11-08 01:16 Guest7732 #9822  1.766,2.684,3.066,3.111
TR Y 10.641s 2024-08-13 18:12 Alideniz #9823  1.433,2.967,2.983,3.258
GE N 10.644s 2022-12-22 12:37 bigjenny26 #9824  1.616,3.017,2.817,3.194
UA Y 10.660s 2022-12-17 15:48 etoya2106 #9825  1.633,2.667,2.800,3.560
ES N 10.660s 2024-05-07 15:30 Ash #9826  1.716,2.700,3.167,3.077
HU Y 10.677s 2022-12-11 12:27 2010Bende #9827  1.500,2.566,2.550,4.061
MK N 10.677s 2022-12-19 00:08 dame #9828  1.983,2.500,2.950,3.244
SG N 10.677s 2023-09-13 11:35 NinjaKitty #9829  2.000,2.433,2.483,3.761
PL N 10.677s 2024-06-01 16:37 Guest5041 #9830  1.816,2.984,2.850,3.027
MX Y 10.677s 2026-03-07 05:30 Vlakero #9831  2.283,2.900,3.017,2.477
DE N 10.678s 2025-01-09 19:25 Guest2463 #9832  1.750,3.400,2.633,2.895
ES N 10.693s 2022-12-07 17:39 GOGOGGO #9833  1.650,3.133,2.767,3.143
TR Y 10.693s 2023-06-06 16:45 Slayer27 #9834  1.600,3.116,3.034,2.943
RS N 10.707s 2023-05-30 17:32 lazapro301 #9835  1.500,2.833,3.083,3.291
US Y 10.710s 2023-06-05 14:14 Saucisim #9836  1.750,3.066,2.917,2.977
IL N 10.710s 2023-09-23 06:53 Sapass27 #9837  1.833,2.983,2.967,2.927
ZA Y 10.711s 2026-02-21 04:49 methememan #9838  1.750,2.500,3.966,2.495
ES N 10.727s 2023-06-23 18:36 Gormiti #9839  2.016,2.767,2.750,3.194
SE Y 10.727s 2024-02-16 10:20 Alvooocadooo #9840  2.016,2.800,2.934,2.977
IT Y 10.743s 2022-12-21 21:06 FiestyBarbarian #9841  1.833,2.967,3.233,2.710
RO Y 10.743s 2023-12-13 08:56 theblazed #9842  2.433,2.783,2.734,2.793
IS Y 10.743s 2024-01-28 15:58 Ste #9843  2.050,2.983,2.867,2.843
RU N 10.744s 2024-06-16 23:55 meeropee #9844  1.950,2.933,2.817,3.044
US N 10.777s 2022-09-07 01:23 Guest2348 #9845  1.683,2.950,3.067,3.077
LT Y 10.777s 2022-12-08 17:08 Doma #9846  1.666,3.050,3.084,2.977
US Y 10.777s 2023-09-15 21:47 Nettie_Skettie #9847  1.666,3.150,3.100,2.861
GB N 10.777s 2026-03-16 12:27 squibi #9848  1.633,3.250,3.050,2.844
US N 10.778s 2024-01-22 02:35 KingD130 #9849  1.550,3.316,3.400,2.512
HU Y 10.793s 2022-12-08 16:35 Kiokiue #9850  1.750,2.516,3.234,3.293
RU N 10.793s 2022-12-17 10:45 Lol10007 #9851  1.900,3.216,2.717,2.960
US Y 10.793s 2025-12-20 11:38 Guest7315 #9852  1.850,2.700,2.966,3.277
IN Y 10.793s 2026-04-10 13:57 Ashish #9853  1.600,3.383,2.883,2.927
RO Y 10.794s 2023-08-03 05:42 Elven #9854  1.883,2.767,2.783,3.361
EE N 10.810s 2022-12-23 07:53 Top_Lauri #9855  2.383,2.667,3.166,2.594
US Y 10.810s 2025-12-23 03:58 spekkio #9856  2.016,2.884,3.066,2.844
FR N 10.843s 2024-11-11 14:47 kirikou 1 2 3 #9857  1.650,3.166,3.184,2.843
SE N 10.844s 2023-09-02 19:13 Whaevva #9858  2.400,2.850,2.866,2.728
BY N 10.857s 2024-09-26 09:50 бешеный член #9859  1.616,3.100,3.167,2.974
US Y 10.860s 2023-06-15 02:23 buttsworth #9860  1.616,3.234,3.350,2.660
UA Y 10.860s 2023-09-02 11:16 pupokchek #9861  1.416,3.150,3.450,2.844
DK N 10.876s 2022-12-19 13:02 Parrot #9862  2.150,2.916,2.934,2.876
CH Y 10.878s 2023-02-04 09:00 ImperialistNove #9863  1.383,3.467,3.100,2.928
IE Y 10.894s 2022-12-25 01:09 RapidNinja7 #9864  1.766,3.484,2.450,3.194
HR Y 10.927s 2024-05-07 14:24 mo_elevem #9865  1.916,2.900,3.000,3.111
GB N 10.943s 2023-08-09 18:20 ARCH18 #9866  1.783,2.850,3.283,3.027
DE Y 10.977s 2026-02-19 13:44 Allegra #9867  1.900,2.983,2.967,3.127
DK N 10.994s 2022-12-07 13:29 Dk_mumbe #9868  1.850,2.833,3.067,3.244
AU N 10.994s 2023-10-02 00:12 Rat #9869  1.550,3.133,3.067,3.244
US N 11.008s 2023-05-22 18:55 Asian _Guy #9870  2.200,2.900,2.700,3.208
CL Y 11.010s 2026-03-04 13:34 Papo #9871  2.350,2.966,3.200,2.494
SE N 11.027s 2023-02-10 14:13 Jegglebirry #9872  1.483,2.950,2.950,3.644
TR Y 11.027s 2026-04-05 14:11 DunyaSonuncusu55 #9873  1.750,3.416,3.200,2.661
BE N 11.044s 2023-09-25 07:36 MooingBeach30 #9874  1.683,2.833,3.017,3.511
GR Y 11.077s 2022-12-09 14:00 Johnkost12 #9875  1.450,2.566,3.934,3.127
US N 11.077s 2023-09-17 15:42 Blazer #9876  2.066,3.134,2.933,2.944
GB N 11.094s 2024-07-05 20:36 Ecxho #9877  1.666,3.117,3.367,2.944
US Y 11.094s 2026-04-09 18:39 felix_m #9878  1.966,2.950,3.134,3.044
RU Y 11.127s 2026-02-10 15:11 AlohaKuino #9879  1.533,2.783,3.384,3.427
US Y 11.127s 2026-02-21 07:39 Luna Eclipse #9880  1.800,2.900,3.150,3.277
DE N 11.143s 2026-04-16 15:41 Purpleberry_003 #9881  1.966,3.050,3.067,3.060
GR Y 11.144s 2023-02-08 15:48 CrazyJim28 #9882  1.583,2.450,2.800,4.311
DE N 11.160s 2026-03-21 06:55 Guest3092 #9883  1.700,2.983,3.250,3.227
US N 11.177s 2022-10-11 04:49 Pooman #9884  1.616,3.184,3.300,3.077
DE N 11.177s 2024-03-05 11:27 hehelol442000 #9885  2.100,3.100,3.133,2.844
CH Y 11.243s 2022-12-26 18:03 Panda #9886  1.833,3.050,2.833,3.527
TR N 11.259s 2022-12-07 13:04 Ronin #9887  1.783,2.817,3.733,2.926
FI N 11.260s 2022-12-16 19:38 jaakko #9888  2.083,3.033,3.084,3.060
CH N 11.260s 2026-01-21 19:03 Lesko640 #9889  1.850,3.383,3.317,2.710
US N 11.260s 2026-02-17 14:10 Evanthegreat1122 #9890  1.916,3.067,3.133,3.144
IT Y 11.277s 2022-12-11 20:40 EntertainingJay #9891  2.400,2.850,2.816,3.211
CO Y 11.294s 2023-06-08 11:52 deleted user #9892  1.950,2.833,3.183,3.328
DE Y 11.294s 2025-12-23 22:56 schliggi13 #9893  2.216,2.967,3.367,2.744
SE N 11.310s 2023-04-08 09:21 RV Moon #9894  1.750,2.583,3.600,3.377
NO N 11.310s 2023-09-08 21:06 Guest5612 #9895  1.783,3.083,3.250,3.194
US Y 11.310s 2026-04-24 22:12 pikaq #9896  1.866,2.850,3.334,3.260
IL Y 11.327s 2023-07-11 12:48 baba #9897  2.566,3.050,3.067,2.644
LV Y 11.327s 2023-12-21 06:43 adzibola #9898  2.266,3.017,3.033,3.011
AU Y 11.327s 2025-12-23 21:41 Guest2248 #9899  1.550,2.700,4.483,2.594
US N 11.344s 2024-09-14 16:40 Abumpy #9900  1.916,2.900,3.434,3.094
DE Y 11.360s 2026-02-10 06:26 Jaki daddy #9901  2.333,2.950,3.167,2.910
US Y 11.361s 2024-03-08 03:30 airstretch #9902  2.266,2.884,3.133,3.078
US Y 11.410s 2023-05-15 16:37 Cg_aimer #9903  2.933,2.833,2.767,2.877
GB N 11.411s 2023-04-05 20:37 kezza0 #9904  1.866,2.917,3.750,2.878
IT N 11.427s 2022-12-18 20:32 ZraxTech #9905  1.983,3.083,3.000,3.361
KZ N 11.427s 2023-02-13 12:23 Guest3625 #9906  1.850,3.233,2.933,3.411
GB N 11.427s 2023-02-16 20:13 Exo #9907  1.866,2.984,4.000,2.577
RU N 11.443s 2024-10-21 09:25 VertebrateVigilance6 #9908  2.000,2.950,3.433,3.060
NO N 11.458s 2024-07-06 08:43 karbonadedeig #9909  2.500,2.716,2.867,3.375
US N 11.459s 2024-09-07 00:55 TheEnderspy1 #9910  1.866,3.434,3.066,3.093
FR N 11.460s 2024-11-15 22:41 Riiixxx #9911  2.466,2.784,3.083,3.127
US Y 11.460s 2026-03-21 01:06 Andy #9912  1.816,3.567,3.067,3.010
EE Y 11.511s 2023-05-25 08:27 qubix1227 #9913  1.733,3.650,3.300,2.828
IL N 11.527s 2023-07-12 11:39 Sultana the guy #9914  1.733,3.417,3.233,3.144
IT Y 11.544s 2022-12-21 11:45 Adolf Hitler #9915  1.800,3.600,2.766,3.378
US N 11.575s 2023-07-04 20:49 Guest3453 #9916  3.316,2.867,2.783,2.609
CA Y 11.576s 2024-10-10 23:45 Anik253 #9917  1.783,2.917,3.466,3.410
DZ N 11.577s 2022-12-07 06:37 Raid #9918  1.950,3.100,2.800,3.727
FI N 11.578s 2023-10-22 15:32 heemi9 #9919  1.616,3.017,3.367,3.578
US Y 11.593s 2024-07-30 23:12 Guest4776 #9920  1.866,3.250,3.234,3.243
FI N 11.610s 2025-01-26 12:57 Humpstery #9921  2.183,3.200,3.083,3.144
ES N 11.627s 2022-12-22 02:40 Machoman #9922  3.266,2.750,3.184,2.427
NZ N 11.627s 2026-02-27 18:38 ?! #9923  1.816,2.684,3.150,3.977
IT Y 11.628s 2022-12-09 18:13 Alinik #9924  2.266,3.150,3.117,3.095
IL N 11.657s 2023-02-06 08:18 yuvalon #9925  1.733,3.533,3.650,2.741
AT N 11.660s 2022-12-09 17:12 TomatenToast #9926  1.516,3.317,3.900,2.927
US Y 11.660s 2026-03-30 19:29 Stell✨ #9927  2.000,3.016,3.467,3.177
US N 11.693s 2023-06-08 15:45 speedy #9928  2.066,3.750,3.017,2.860
RO Y 11.693s 2024-05-17 11:10 Mariahh #9929  2.633,3.033,3.050,2.977
AL N 11.710s 2022-12-13 14:25 FoundIncense34 #9930  1.883,3.033,2.884,3.910
LV Y 11.710s 2022-12-18 14:22 Itznoks #9931  2.000,3.583,3.283,2.844
AT N 11.710s 2023-02-12 14:30 cookie #9932  1.950,3.083,3.433,3.244
AR N 11.743s 2026-03-10 12:30 pedro #9933  2.166,3.334,3.000,3.243
RU Y 11.760s 2023-06-25 06:23 Yublya #9934  2.050,3.450,2.983,3.277
CZ N 11.760s 2026-03-30 17:20 xVas1cek #9935  2.000,3.233,3.767,2.760
IL Y 11.760s 2026-05-03 08:27 ViralVirtue29 #9936  1.883,3.300,3.583,2.994
GB N 11.774s 2024-10-22 10:59 Dr_Doof #9937  2.200,3.216,3.434,2.924
US N 11.790s 2023-04-01 20:16 The1withitall #9938  1.900,2.850,3.366,3.674
LA N 11.794s 2024-10-13 11:55 Fhnpirese #9939  1.733,3.533,3.267,3.261
NO Y 11.810s 2022-12-11 15:28 C00lkid #9940  2.116,3.184,3.283,3.227
RO Y 11.810s 2022-12-21 19:25 Codrinel #9941  1.816,2.350,2.367,5.277
GB N 11.810s 2024-05-16 15:37 Goblin Fr #9942  2.033,2.783,4.067,2.927
AR N 11.810s 2024-08-13 12:14 SEVENTOX12 #9943  2.000,3.166,3.400,3.244
IE N 11.827s 2023-09-14 10:24 I like men #9944  1.600,3.183,3.267,3.777
FR Y 11.827s 2026-04-09 15:59 Théo pas z #9945  1.833,3.667,3.383,2.944
GR N 11.843s 2023-03-16 12:55 Greekfear #9946  2.400,3.016,3.767,2.660
AU Y 11.843s 2024-02-21 12:22 tom1111110 #9947  2.116,3.184,3.066,3.477
US N 11.844s 2023-08-19 20:46 Tom #9948  2.316,3.434,3.183,2.911
NL N 11.877s 2023-10-31 23:11 sem #9949  1.666,3.567,3.133,3.511
UA N 11.927s 2022-12-12 18:39 wtf Nitr0 #9950  2.016,3.084,3.666,3.161
DE N 11.927s 2023-02-08 14:40 Elias #9951  2.000,3.400,3.366,3.161
RS N 11.943s 2024-01-11 19:27 JaggedProductio #9952  2.633,3.283,3.017,3.010
TW N 11.958s 2026-02-14 07:21 鈴蘭 #9953  2.150,3.383,3.050,3.375
TN Y 11.960s 2022-12-08 06:30 imed22735 #9954  1.933,2.817,3.766,3.444
NL Y 11.961s 2026-03-12 05:18 syzhet #9955  2.200,2.833,2.800,4.128
AT N 11.977s 2022-12-13 18:20 EGG #9956  2.016,3.800,3.267,2.894
RO N 11.977s 2023-11-11 11:52 raven #9957  2.983,2.883,3.034,3.077
CA Y 11.977s 2024-04-11 05:49 2x0 #9958  2.050,3.266,3.317,3.344
CA N 11.990s 2026-04-06 01:15 theeliteninja. #9959  2.933,3.217,3.416,2.424
US Y 11.993s 2026-02-10 22:27 CboyJman #9960  1.716,3.084,3.883,3.310
ES Y 11.994s 2022-12-18 17:59 Ari la chan #9961  1.666,3.267,3.683,3.378
UA Y 11.994s 2024-02-08 19:24 MaryBlack #9962  1.566,3.217,3.617,3.594
US N 12.010s 2026-04-04 11:53 ayzee #9963  1.966,3.300,3.184,3.560
BE N 12.043s 2024-07-28 15:36 Guest1956 #9964  1.783,3.367,3.450,3.443
US Y 12.060s 2023-06-14 22:58 Rei #9965  1.633,2.933,3.867,3.627
GB Y 12.077s 2023-10-07 12:27 Guest1254 #9966  1.750,4.200,3.183,2.944
NO N 12.077s 2024-01-06 14:15 Primzz #9967  1.750,2.750,3.133,4.444
GR Y 12.109s 2023-02-10 11:44 PO KARMA COUSIN #9968  1.900,3.683,3.167,3.359
RO N 12.127s 2022-12-11 09:16 AuthenticMeetin #9969  2.433,3.700,3.333,2.661
FI N 12.127s 2023-10-02 08:45 miro1296 #9970  1.633,3.200,4.150,3.144
BY N 12.243s 2022-12-19 09:09 Guest5673 #9971  2.483,3.417,3.333,3.010
GB N 12.244s 2023-06-05 18:16 Bezz #9972  1.966,3.250,3.617,3.411
IT Y 12.260s 2022-12-20 18:29 RadishPlays #9973  1.483,3.300,3.067,4.410
CD N 12.310s 2023-08-12 13:59 DamnDaniel #9974  2.200,3.100,4.050,2.960
SG N 12.327s 2025-05-16 08:29 Lyka_cd #9975  1.850,2.816,4.100,3.561
IE N 12.343s 2024-01-07 16:55 Apple18 #9976  2.750,2.633,3.633,3.327
FR Y 12.360s 2026-05-03 08:07 LeTork #9977  2.050,3.216,3.417,3.677
GB Y 12.394s 2023-07-18 14:17 HutchinsonGames #9978  2.083,3.367,3.400,3.544
ES N 12.410s 2023-03-17 19:22 Guest2279 #9979  2.216,3.334,3.300,3.560
US N 12.411s 2023-02-09 21:04 ThatBSgamer #9980  2.050,3.233,3.367,3.761
BR N 12.427s 2022-12-22 03:15 zangW #9981  1.833,2.917,3.383,4.294
NO Y 12.427s 2023-10-17 19:04 Natti #9982  1.550,3.950,4.100,2.827
US N 12.477s 2023-04-21 14:38 PhenomenalLeade #9983  1.833,3.483,3.317,3.844
FR Y 12.494s 2024-01-22 13:09 HusMeister #9984  2.650,3.483,3.317,3.044
IL N 12.510s 2024-09-19 11:16 discordmod4238 #9985  1.866,3.050,3.817,3.777
AU N 12.544s 2024-11-28 17:41 Blu 2th #9986  2.216,3.334,3.300,3.694
SK Y 12.574s 2024-01-07 12:17 LavaMasterTV1 #9987  2.716,3.484,3.933,2.441
BG N 12.593s 2023-07-18 05:49 Gechkata #9988  2.766,2.750,3.550,3.527
IN Y 12.593s 2024-02-19 04:18 CRSIEBEN7 #9989  2.216,3.367,3.233,3.777
RO N 12.594s 2025-02-28 19:06 eleven #9990  1.850,3.116,3.934,3.694
US Y 12.692s 2026-02-18 14:00 Guest8710 #9991  2.100,4.116,3.484,2.992
RS N 12.694s 2022-12-19 13:34 Guest7764 #9992  1.600,3.666,3.534,3.894
FR Y 12.710s 2026-02-22 14:48 Guest3384 #9993  2.600,3.633,3.317,3.160
NL N 12.710s 2026-04-26 14:14 BluishGasp89 #9994  1.966,3.784,3.500,3.460
US Y 12.727s 2023-10-01 22:34 Abcforbananas #9995  1.683,3.517,3.800,3.727
US Y 12.744s 2023-11-15 12:42 Colinator #9996  1.566,3.750,3.900,3.528
IN N 12.794s 2023-07-09 13:02 NonGamerNoob1 #9997  1.966,3.334,4.000,3.494
HR Y 12.810s 2023-05-24 07:21 Nik #9998  1.833,2.917,4.250,3.810
BA Y 12.861s 2022-12-13 15:24 poison #9999  1.450,3.950,4.116,3.345
BR N 12.877s 2024-09-24 19:44 Cicero #10000  2.083,3.667,3.700,3.427

Next page